| time (UTC) | temp F | wind direction | speed MPH | gust MPH | rain 1hr in | rain 24hr in | rain mn in | humidity % | barometer mb |
| 20260504045502 | 54 | 284 | 2.0 | 7.0 | 0.00 | 0.00 | 0.00 | 76 | 1007.3 |
| 20260504045413 | 54 | 219 | 2.0 | 7.0 | 0.00 | 0.00 | 0.00 | 76 | 1007.3 |
| 20260504045307 | 54 | 278 | 1.0 | 7.0 | 0.00 | 0.00 | 0.00 | 76 | 1007.3 |
| 20260504045218 | 54 | 150 | 2.0 | 7.0 | 0.00 | 0.00 | 0.00 | 76 | 1007.2 |
| 20260504045130 | 54 | 236 | 2.0 | 7.0 | 0.00 | 0.00 | 0.00 | 76 | 1007.1 |
| 20260504045020 | 54 | 296 | 2.0 | 7.0 | 0.00 | 0.00 | 0.00 | 76 | 1007.2 |
| 20260504044930 | 54 | 175 | 3.0 | 8.0 | 0.00 | 0.00 | 0.00 | 76 | 1007.2 |
| 20260504044820 | 54 | 236 | 2.0 | 7.0 | 0.00 | 0.00 | 0.00 | 76 | 1007.3 |
| 20260504044730 | 54 | 84 | 3.0 | 7.0 | 0.00 | 0.00 | 0.00 | 76 | 1007.2 |
| 20260504044601 | 54 | 248 | 3.0 | 7.0 | 0.00 | 0.00 | 0.00 | 76 | 1007.2 |
| 20260504044523 | 54 | 212 | 3.0 | 7.0 | 0.00 | 0.00 | 0.00 | 76 | 1007.2 |
| 20260504044416 | 53 | 172 | 1.0 | 5.0 | 0.00 | 0.00 | 0.00 | 76 | 1007.2 |
| 20260504044305 | 53 | 261 | 1.0 | 5.0 | 0.00 | 0.00 | 0.00 | 76 | 1007.3 |
| 20260504044200 | 53 | 223 | 2.0 | 5.0 | 0.00 | 0.00 | 0.00 | 76 | 1007.3 |
| 20260504044112 | 53 | 229 | 2.0 | 5.0 | 0.00 | 0.00 | 0.00 | 76 | 1007.3 |
| 20260504044002 | 53 | 213 | 3.0 | 5.0 | 0.00 | 0.00 | 0.00 | 76 | 1007.3 |
| 20260504043913 | 53 | 240 | 2.0 | 5.0 | 0.00 | 0.00 | 0.00 | 76 | 1007.3 |
| 20260504043803 | 53 | 263 | 1.0 | 5.0 | 0.00 | 0.00 | 0.00 | 76 | 1007.3 |
| 20260504043714 | 53 | 74 | 2.0 | 5.0 | 0.00 | 0.00 | 0.00 | 76 | 1007.3 |
| 20260504043606 | 53 | 108 | 2.0 | 5.0 | 0.00 | 0.00 | 0.00 | 76 | 1007.3 |
| 20260504043517 | 53 | 132 | 3.0 | 5.0 | 0.00 | 0.00 | 0.00 | 76 | 1007.3 |
| 20260504043412 | 53 | 243 | 3.0 | 7.0 | 0.00 | 0.00 | 0.00 | 76 | 1007.2 |
| 20260504043306 | 53 | 222 | 2.0 | 7.0 | 0.00 | 0.00 | 0.00 | 76 | 1007.3 |
| 20260504043215 | 53 | 169 | 2.0 | 7.0 | 0.00 | 0.00 | 0.00 | 76 | 1007.3 |
| 20260504043105 | 53 | 242 | 2.0 | 7.0 | 0.00 | 0.00 | 0.00 | 76 | 1007.3 |
| 20260504043027 | 53 | 215 | 2.0 | 7.0 | 0.00 | 0.00 | 0.00 | 76 | 1007.4 |
| 20260504042916 | 53 | 192 | 2.0 | 8.0 | 0.00 | 0.00 | 0.00 | 76 | 1007.3 |
| 20260504042805 | 53 | 201 | 2.0 | 8.0 | 0.00 | 0.00 | 0.00 | 76 | 1007.4 |
| 20260504042716 | 53 | 249 | 2.0 | 8.0 | 0.00 | 0.00 | 0.00 | 76 | 1007.3 |
| 20260504042606 | 53 | 251 | 2.0 | 8.0 | 0.00 | 0.00 | 0.00 | 76 | 1007.3 |
| 20260504042520 | 53 | 281 | 1.0 | 8.0 | 0.00 | 0.00 | 0.00 | 76 | 1007.3 |
| 20260504042410 | 53 | 269 | 1.0 | 8.0 | 0.00 | 0.00 | 0.00 | 76 | 1007.3 |
| 20260504042301 | 53 | 281 | 2.0 | 8.0 | 0.00 | 0.00 | 0.00 | 77 | 1007.3 |
| 20260504042211 | 53 | 250 | 3.0 | 8.0 | 0.00 | 0.00 | 0.00 | 77 | 1007.3 |
| 20260504042102 | 53 | 219 | 3.0 | 7.0 | 0.00 | 0.00 | 0.00 | 77 | 1007.4 |
| 20260504042012 | 53 | 136 | 2.0 | 5.0 | 0.00 | 0.00 | 0.00 | 77 | 1007.3 |
| 20260504041904 | 53 | 221 | 2.0 | 5.0 | 0.00 | 0.00 | 0.00 | 77 | 1007.3 |
| 20260504041814 | 53 | 238 | 2.0 | 5.0 | 0.00 | 0.00 | 0.00 | 77 | 1007.3 |
| 20260504041705 | 53 | 252 | 2.0 | 7.0 | 0.00 | 0.00 | 0.00 | 77 | 1007.3 |
| 20260504041620 | 53 | 126 | 2.0 | 7.0 | 0.00 | 0.00 | 0.00 | 77 | 1007.4 |
| 20260504041542 | 53 | 190 | 2.0 | 7.0 | 0.00 | 0.00 | 0.00 | 77 | 1007.4 |
| 20260504041433 | 53 | 223 | 1.0 | 7.0 | 0.00 | 0.00 | 0.00 | 77 | 1007.4 |
| 20260504041321 | 53 | 117 | 1.0 | 7.0 | 0.00 | 0.00 | 0.00 | 77 | 1007.4 |
| 20260504041232 | 53 | 269 | 1.0 | 7.0 | 0.00 | 0.00 | 0.00 | 77 | 1007.4 |
| 20260504041101 | 53 | 263 | 1.0 | 7.0 | 0.00 | 0.00 | 0.00 | 78 | 1007.4 |
| 20260504041012 | 53 | 219 | 2.0 | 7.0 | 0.00 | 0.00 | 0.00 | 78 | 1007.4 |
| 20260504040902 | 52 | 146 | 3.0 | 7.0 | 0.00 | 0.00 | 0.00 | 78 | 1007.4 |
| 20260504040814 | 52 | 257 | 2.0 | 7.0 | 0.00 | 0.00 | 0.00 | 78 | 1007.4 |
| 20260504040706 | 52 | 229 | 3.0 | 7.0 | 0.00 | 0.00 | 0.00 | 78 | 1007.4 |
| 20260504040600 | 52 | 252 | 2.0 | 7.0 | 0.00 | 0.00 | 0.00 | 78 | 1007.4 |
| 20260504040510 | 52 | 284 | 2.0 | 7.0 | 0.00 | 0.00 | 0.00 | 79 | 1007.4 |
| 20260504040401 | 52 | 166 | 2.0 | 7.0 | 0.00 | 0.00 | 0.00 | 79 | 1007.4 |
| 20260504040313 | 52 | 331 | 2.0 | 7.0 | 0.00 | 0.00 | 0.00 | 79 | 1007.5 |
| 20260504040202 | 52 | 132 | 2.0 | 7.0 | 0.00 | 0.00 | 0.00 | 79 | 1007.5 |
| 20260504040114 | 52 | 159 | 2.0 | 7.0 | 0.00 | 0.00 | 0.00 | 79 | 1007.4 |
| 20260504040035 | 52 | 265 | 1.0 | 4.0 | 0.00 | 0.00 | 0.00 | 79 | 1007.5 |
| 20260504035926 | 52 | 277 | 1.0 | 4.0 | 0.00 | 0.00 | 0.00 | 79 | 1007.5 |
| 20260504035807 | 52 | 202 | 1.0 | 4.0 | 0.00 | 0.00 | 0.00 | 79 | 1007.4 |
| 20260504035703 | 52 | 219 | 1.0 | 4.0 | 0.00 | 0.00 | 0.00 | 79 | 1007.5 |
| 20260504035614 | 51 | 271 | 1.0 | 4.0 | 0.00 | 0.00 | 0.00 | 79 | 1007.5 |
| 20260504035506 | 51 | 284 | 1.0 | 4.0 | 0.00 | 0.00 | 0.00 | 80 | 1007.5 |
| 20260504035418 | 51 | 277 | 1.0 | 4.0 | 0.00 | 0.00 | 0.00 | 80 | 1007.6 |
| 20260504035309 | 51 | 195 | 1.0 | 3.0 | 0.00 | 0.00 | 0.00 | 80 | 1007.5 |
| 20260504035200 | 51 | 217 | 1.0 | 3.0 | 0.00 | 0.00 | 0.00 | 80 | 1007.5 |
| 20260504035110 | 51 | 217 | 1.0 | 4.0 | 0.00 | 0.00 | 0.00 | 80 | 1007.5 |
| 20260504035023 | 51 | 150 | 1.0 | 4.0 | 0.00 | 0.00 | 0.00 | 80 | 1007.5 |
| 20260504034935 | 51 | 248 | 1.0 | 4.0 | 0.00 | 0.00 | 0.00 | 80 | 1007.5 |
| 20260504034824 | 51 | 140 | 1.0 | 4.0 | 0.00 | 0.00 | 0.00 | 80 | 1007.5 |
| 20260504034739 | 51 | 111 | 1.0 | 4.0 | 0.00 | 0.00 | 0.00 | 80 | 1007.6 |
| 20260504034608 | 51 | 153 | 1.0 | 4.0 | 0.00 | 0.00 | 0.00 | 80 | 1007.5 |
| 20260504034531 | 51 | 269 | 1.0 | 4.0 | 0.00 | 0.00 | 0.00 | 80 | 1007.5 |
| 20260504034401 | 51 | 153 | 1.0 | 4.0 | 0.00 | 0.00 | 0.00 | 80 | 1007.6 |
| 20260504034310 | 51 | 167 | 1.0 | 4.0 | 0.00 | 0.00 | 0.00 | 80 | 1007.6 |
| 20260504034202 | 51 | 109 | 1.0 | 3.0 | 0.00 | 0.00 | 0.00 | 80 | 1007.6 |
| 20260504034115 | 51 | 337 | 1.0 | 3.0 | 0.00 | 0.00 | 0.00 | 80 | 1007.6 |
| 20260504034006 | 51 | 169 | 1.0 | 3.0 | 0.00 | 0.00 | 0.00 | 80 | 1007.7 |
| 20260504033900 | 51 | 101 | 1.0 | 3.0 | 0.00 | 0.00 | 0.00 | 80 | 1007.7 |
| 20260504033811 | 51 | 270 | 1.0 | 3.0 | 0.00 | 0.00 | 0.00 | 80 | 1007.7 |
| 20260504033700 | 51 | 142 | 0.0 | 3.0 | 0.00 | 0.00 | 0.00 | 80 | 1007.7 |
| 20260504033612 | 51 | 255 | 0.0 | 3.0 | 0.00 | 0.00 | 0.00 | 80 | 1007.6 |
| 20260504033504 | 51 | 255 | 1.0 | 3.0 | 0.00 | 0.00 | 0.00 | 80 | 1007.8 |
| 20260504033414 | 51 | 255 | 1.0 | 3.0 | 0.00 | 0.00 | 0.00 | 80 | 1007.7 |
| 20260504033306 | 51 | 192 | 1.0 | 3.0 | 0.00 | 0.00 | 0.00 | 80 | 1007.8 |
| 20260504033217 | 51 | 192 | 1.0 | 3.0 | 0.00 | 0.00 | 0.00 | 80 | 1007.8 |
| 20260504033119 | 51 | 192 | 1.0 | 3.0 | 0.00 | 0.00 | 0.00 | 80 | 1007.8 |
| 20260504033034 | 51 | 225 | 1.0 | 3.0 | 0.00 | 0.00 | 0.00 | 80 | 1007.8 |
| 20260504032903 | 51 | 224 | 0.0 | 2.0 | 0.00 | 0.00 | 0.00 | 80 | 1007.9 |
| 20260504032813 | 51 | 224 | 0.0 | 2.0 | 0.00 | 0.00 | 0.00 | 80 | 1007.8 |
| 20260504032704 | 51 | 224 | 0.0 | 2.0 | 0.00 | 0.00 | 0.00 | 80 | 1007.8 |
| 20260504032615 | 51 | 224 | 0.0 | 3.0 | 0.00 | 0.00 | 0.00 | 80 | 1007.9 |
| 20260504032506 | 51 | 224 | 0.0 | 3.0 | 0.00 | 0.00 | 0.00 | 80 | 1007.8 |
| 20260504032417 | 51 | 224 | 0.0 | 3.0 | 0.00 | 0.00 | 0.00 | 80 | 1007.8 |
| 20260504032328 | 51 | 186 | 0.0 | 3.0 | 0.00 | 0.00 | 0.00 | 80 | 1007.9 |
| 20260504032239 | 51 | 215 | 0.0 | 3.0 | 0.00 | 0.00 | 0.00 | 80 | 1007.9 |
| 20260504032112 | 51 | 215 | 0.0 | 3.0 | 0.00 | 0.00 | 0.00 | 81 | 1007.8 |
| 20260504032023 | 51 | 215 | 0.0 | 3.0 | 0.00 | 0.00 | 0.00 | 80 | 1008.0 |
| 20260504031933 | 51 | 215 | 1.0 | 3.0 | 0.00 | 0.00 | 0.00 | 81 | 1007.9 |
| 20260504031802 | 51 | 149 | 1.0 | 3.0 | 0.00 | 0.00 | 0.00 | 81 | 1007.8 |
| 20260504031714 | 51 | 202 | 0.0 | 3.0 | 0.00 | 0.00 | 0.00 | 81 | 1007.9 |
| 20260504031605 | 51 | 202 | 0.0 | 3.0 | 0.00 | 0.00 | 0.00 | 81 | 1007.8 |
| 20260504031529 | 51 | 202 | 1.0 | 3.0 | 0.00 | 0.00 | 0.00 | 81 | 1007.9 |
| 20260504031418 | 51 | 181 | 1.0 | 3.0 | 0.00 | 0.00 | 0.00 | 81 | 1007.8 |
| 20260504031310 | 51 | 190 | 1.0 | 3.0 | 0.00 | 0.00 | 0.00 | 81 | 1007.8 |
| 20260504031205 | 51 | 237 | 1.0 | 3.0 | 0.00 | 0.00 | 0.00 | 81 | 1007.8 |
| 20260504031116 | 51 | 161 | 1.0 | 3.0 | 0.00 | 0.00 | 0.00 | 80 | 1007.8 |
| 20260504031006 | 51 | 234 | 0.0 | 3.0 | 0.00 | 0.00 | 0.00 | 80 | 1007.8 |
| 20260504030917 | 51 | 173 | 0.0 | 4.0 | 0.00 | 0.00 | 0.00 | 80 | 1007.8 |
| 20260504030808 | 51 | 188 | 0.0 | 4.0 | 0.00 | 0.00 | 0.00 | 80 | 1007.8 |
| 20260504030719 | 52 | 188 | 0.0 | 4.0 | 0.00 | 0.00 | 0.00 | 80 | 1007.8 |
| 20260504030609 | 52 | 136 | 1.0 | 4.0 | 0.00 | 0.00 | 0.00 | 80 | 1007.8 |
| 20260504030500 | 52 | 226 | 1.0 | 4.0 | 0.00 | 0.00 | 0.00 | 80 | 1007.7 |
| 20260504030411 | 52 | 138 | 1.0 | 4.0 | 0.00 | 0.00 | 0.00 | 80 | 1007.7 |
| 20260504030308 | 52 | 190 | 1.0 | 4.0 | 0.00 | 0.00 | 0.00 | 80 | 1007.8 |
| 20260504030218 | 52 | 132 | 1.0 | 4.0 | 0.00 | 0.00 | 0.00 | 80 | 1007.9 |
| 20260504030109 | 52 | 147 | 1.0 | 5.0 | 0.00 | 0.00 | 0.00 | 80 | 1007.9 |
| 20260504030029 | 52 | 152 | 1.0 | 5.0 | 0.00 | 0.00 | 0.00 | 80 | 1007.8 |
| 20260504025900 | 52 | 153 | 1.0 | 5.0 | 0.00 | 0.00 | 0.00 | 80 | 1007.8 |
| 20260504025811 | 52 | 207 | 1.0 | 5.0 | 0.00 | 0.00 | 0.00 | 80 | 1007.8 |
| 20260504025722 | 52 | 163 | 2.0 | 5.0 | 0.00 | 0.00 | 0.00 | 80 | 1007.8 |
| 20260504025612 | 52 | 177 | 2.0 | 5.0 | 0.00 | 0.00 | 0.00 | 80 | 1007.8 |
| 20260504025523 | 52 | 157 | 1.0 | 5.0 | 0.00 | 0.00 | 0.00 | 80 | 1007.8 |
| 20260504025412 | 52 | 137 | 1.0 | 5.0 | 0.00 | 0.00 | 0.00 | 80 | 1007.9 |
| 20260504025308 | 52 | 172 | 1.0 | 5.0 | 0.00 | 0.00 | 0.00 | 80 | 1007.8 |
| 20260504025218 | 52 | 159 | 1.0 | 4.0 | 0.00 | 0.00 | 0.00 | 80 | 1007.8 |
| 20260504025108 | 52 | 143 | 1.0 | 4.0 | 0.00 | 0.00 | 0.00 | 80 | 1007.9 |
| 20260504025018 | 52 | 152 | 1.0 | 5.0 | 0.00 | 0.00 | 0.00 | 80 | 1007.8 |
| 20260504024909 | 52 | 201 | 1.0 | 5.0 | 0.00 | 0.00 | 0.00 | 80 | 1007.8 |
| 20260504024801 | 52 | 140 | 2.0 | 5.0 | 0.00 | 0.00 | 0.00 | 80 | 1007.8 |
| 20260504024712 | 52 | 159 | 2.0 | 5.0 | 0.00 | 0.00 | 0.00 | 80 | 1007.8 |
| 20260504024602 | 52 | 162 | 2.0 | 7.0 | 0.00 | 0.00 | 0.00 | 80 | 1007.8 |
| 20260504024528 | 52 | 175 | 2.0 | 7.0 | 0.00 | 0.00 | 0.00 | 80 | 1007.8 |
| 20260504024416 | 52 | 165 | 2.0 | 8.0 | 0.00 | 0.00 | 0.00 | 80 | 1007.8 |
| 20260504024306 | 52 | 186 | 3.0 | 8.0 | 0.00 | 0.00 | 0.00 | 80 | 1007.8 |
| 20260504024218 | 52 | 144 | 3.0 | 8.0 | 0.00 | 0.00 | 0.00 | 80 | 1007.9 |
| 20260504024108 | 52 | 138 | 2.0 | 8.0 | 0.00 | 0.00 | 0.00 | 80 | 1007.9 |
| 20260504024018 | 52 | 165 | 2.0 | 8.0 | 0.00 | 0.00 | 0.00 | 80 | 1007.9 |
| 20260504023930 | 52 | 157 | 2.0 | 8.0 | 0.00 | 0.00 | 0.00 | 80 | 1007.9 |
| 20260504023840 | 52 | 168 | 2.0 | 8.0 | 0.00 | 0.00 | 0.00 | 81 | 1007.8 |
| 20260504023729 | 52 | 199 | 3.0 | 8.0 | 0.00 | 0.00 | 0.00 | 81 | 1007.8 |
| 20260504023618 | 52 | 205 | 3.0 | 8.0 | 0.00 | 0.00 | 0.00 | 81 | 1007.8 |
| 20260504023513 | 52 | 190 | 1.0 | 5.0 | 0.00 | 0.00 | 0.00 | 81 | 1007.8 |
| 20260504023404 | 52 | 167 | 1.0 | 5.0 | 0.00 | 0.00 | 0.00 | 81 | 1007.8 |
| 20260504023317 | 52 | 202 | 2.0 | 5.0 | 0.00 | 0.00 | 0.00 | 81 | 1007.8 |
| 20260504023206 | 52 | 199 | 2.0 | 5.0 | 0.00 | 0.00 | 0.00 | 81 | 1007.8 |
| 20260504023117 | 52 | 240 | 2.0 | 5.0 | 0.00 | 0.00 | 0.00 | 81 | 1007.8 |
| 20260504023039 | 52 | 163 | 2.0 | 5.0 | 0.00 | 0.00 | 0.00 | 81 | 1007.8 |
| 20260504022929 | 52 | 199 | 2.0 | 5.0 | 0.00 | 0.00 | 0.00 | 81 | 1007.8 |
| 20260504022818 | 52 | 200 | 2.0 | 5.0 | 0.00 | 0.00 | 0.00 | 81 | 1007.9 |
| 20260504022708 | 52 | 160 | 2.0 | 5.0 | 0.00 | 0.00 | 0.00 | 81 | 1007.8 |
| 20260504022605 | 52 | 153 | 2.0 | 5.0 | 0.00 | 0.00 | 0.00 | 81 | 1007.8 |
| 20260504022516 | 52 | 155 | 1.0 | 5.0 | 0.00 | 0.00 | 0.00 | 81 | 1007.8 |
| 20260504022428 | 52 | 171 | 1.0 | 5.0 | 0.00 | 0.00 | 0.00 | 80 | 1008.0 |
| 20260504022338 | 52 | 161 | 1.0 | 5.0 | 0.00 | 0.00 | 0.00 | 80 | 1007.9 |
| 20260504022227 | 52 | 309 | 1.0 | 8.0 | 0.00 | 0.00 | 0.00 | 80 | 1007.8 |
| 20260504022116 | 52 | 207 | 2.0 | 8.0 | 0.00 | 0.00 | 0.00 | 80 | 1007.8 |
| 20260504022028 | 52 | 146 | 2.0 | 8.0 | 0.00 | 0.00 | 0.00 | 80 | 1007.8 |
| 20260504021917 | 52 | 154 | 2.0 | 8.0 | 0.00 | 0.00 | 0.00 | 80 | 1007.8 |
| 20260504021809 | 52 | 207 | 3.0 | 8.0 | 0.00 | 0.00 | 0.00 | 80 | 1007.7 |
| 20260504021701 | 52 | 167 | 2.0 | 8.0 | 0.00 | 0.00 | 0.00 | 80 | 1007.8 |
| 20260504021612 | 52 | 157 | 1.0 | 8.0 | 0.00 | 0.00 | 0.00 | 80 | 1007.8 |
| 20260504021537 | 52 | 111 | 1.0 | 8.0 | 0.00 | 0.00 | 0.00 | 80 | 1007.8 |
| 20260504021408 | 52 | 173 | 3.0 | 8.0 | 0.00 | 0.00 | 0.00 | 80 | 1007.7 |
| 20260504021318 | 52 | 150 | 3.0 | 6.0 | 0.00 | 0.00 | 0.00 | 80 | 1007.7 |
| 20260504021209 | 53 | 155 | 3.0 | 7.0 | 0.00 | 0.00 | 0.00 | 80 | 1007.7 |
| 20260504021119 | 53 | 153 | 2.0 | 7.0 | 0.00 | 0.00 | 0.00 | 80 | 1007.7 |
| 20260504021010 | 52 | 174 | 2.0 | 7.0 | 0.00 | 0.00 | 0.00 | 80 | 1007.7 |
| 20260504020901 | 53 | 132 | 2.0 | 7.0 | 0.00 | 0.00 | 0.00 | 80 | 1007.7 |
| 20260504020813 | 53 | 150 | 2.0 | 7.0 | 0.00 | 0.00 | 0.00 | 80 | 1007.7 |
| 20260504020723 | 52 | 169 | 2.0 | 7.0 | 0.00 | 0.00 | 0.00 | 80 | 1007.6 |
| 20260504020637 | 52 | 166 | 2.0 | 7.0 | 0.00 | 0.00 | 0.00 | 81 | 1007.6 |
| 20260504020548 | 52 | 190 | 2.0 | 6.0 | 0.00 | 0.00 | 0.00 | 81 | 1007.6 |
| 20260504020437 | 52 | 180 | 3.0 | 6.0 | 0.00 | 0.00 | 0.00 | 81 | 1007.5 |
| 20260504020308 | 52 | 150 | 3.0 | 7.0 | 0.00 | 0.00 | 0.00 | 81 | 1007.5 |
| 20260504020217 | 52 | 149 | 3.0 | 6.0 | 0.00 | 0.00 | 0.00 | 81 | 1007.5 |
| 20260504020108 | 52 | 157 | 3.0 | 8.0 | 0.00 | 0.00 | 0.00 | 81 | 1007.5 |
| 20260504020030 | 52 | 153 | 2.0 | 8.0 | 0.00 | 0.00 | 0.00 | 80 | 1007.4 |
| 20260504015919 | 52 | 175 | 2.0 | 8.0 | 0.00 | 0.00 | 0.00 | 80 | 1007.5 |
| 20260504015810 | 52 | 141 | 2.0 | 8.0 | 0.00 | 0.00 | 0.00 | 80 | 1007.5 |
| 20260504015704 | 53 | 144 | 1.0 | 8.0 | 0.00 | 0.00 | 0.00 | 80 | 1007.5 |
| 20260504015616 | 53 | 45 | 1.0 | 8.0 | 0.00 | 0.00 | 0.00 | 80 | 1007.4 |
| 20260504015507 | 53 | 180 | 2.0 | 8.0 | 0.00 | 0.00 | 0.00 | 80 | 1007.4 |
| 20260504015416 | 53 | 128 | 2.0 | 8.0 | 0.00 | 0.00 | 0.00 | 80 | 1007.4 |
| 20260504015307 | 52 | 126 | 3.0 | 8.0 | 0.00 | 0.00 | 0.00 | 80 | 1007.3 |
| 20260504015220 | 52 | 179 | 3.0 | 8.0 | 0.00 | 0.00 | 0.00 | 80 | 1007.3 |
| 20260504015131 | 52 | 165 | 4.0 | 8.0 | 0.00 | 0.00 | 0.00 | 80 | 1007.3 |
| 20260504015022 | 52 | 154 | 4.0 | 8.0 | 0.00 | 0.00 | 0.00 | 80 | 1007.3 |
| 20260504014932 | 52 | 158 | 3.0 | 8.0 | 0.00 | 0.00 | 0.00 | 80 | 1007.3 |
| 20260504014803 | 53 | 174 | 3.0 | 6.0 | 0.00 | 0.00 | 0.00 | 80 | 1007.3 |
| 20260504014718 | 52 | 167 | 4.0 | 6.0 | 0.00 | 0.00 | 0.00 | 80 | 1007.4 |
| 20260504014609 | 53 | 171 | 3.0 | 7.0 | 0.00 | 0.00 | 0.00 | 80 | 1007.4 |
| 20260504014532 | 53 | 157 | 2.0 | 7.0 | 0.00 | 0.00 | 0.00 | 80 | 1007.3 |
| 20260504014401 | 53 | 173 | 3.0 | 7.0 | 0.00 | 0.00 | 0.00 | 80 | 1007.4 |
| 20260504014312 | 53 | 165 | 3.0 | 7.0 | 0.00 | 0.00 | 0.00 | 80 | 1007.3 |
| 20260504014202 | 53 | 146 | 3.0 | 7.0 | 0.00 | 0.00 | 0.00 | 80 | 1007.3 |
| 20260504014113 | 53 | 158 | 3.0 | 7.0 | 0.00 | 0.00 | 0.00 | 80 | 1007.3 |
| 20260504014005 | 53 | 189 | 3.0 | 7.0 | 0.00 | 0.00 | 0.00 | 80 | 1007.3 |
| 20260504013900 | 53 | 159 | 3.0 | 6.0 | 0.00 | 0.00 | 0.00 | 80 | 1007.3 |
| 20260504013811 | 53 | 198 | 3.0 | 6.0 | 0.00 | 0.00 | 0.00 | 80 | 1007.4 |
| 20260504013702 | 53 | 169 | 3.0 | 6.0 | 0.00 | 0.00 | 0.00 | 80 | 1007.4 |
| 20260504013613 | 53 | 182 | 3.0 | 6.0 | 0.00 | 0.00 | 0.00 | 80 | 1007.3 |
| 20260504013504 | 53 | 199 | 3.0 | 6.0 | 0.00 | 0.00 | 0.00 | 79 | 1007.3 |
| 20260504013414 | 53 | 180 | 3.0 | 7.0 | 0.00 | 0.00 | 0.00 | 79 | 1007.4 |
| 20260504013307 | 53 | 143 | 4.0 | 7.0 | 0.00 | 0.00 | 0.00 | 79 | 1007.4 |
| 20260504013216 | 53 | 158 | 4.0 | 7.0 | 0.00 | 0.00 | 0.00 | 79 | 1007.4 |
| 20260504013107 | 53 | 159 | 3.0 | 7.0 | 0.00 | 0.00 | 0.00 | 79 | 1007.4 |
| 20260504013033 | 53 | 169 | 2.0 | 7.0 | 0.00 | 0.00 | 0.00 | 79 | 1007.5 |
| 20260504012903 | 53 | 155 | 2.0 | 6.0 | 0.00 | 0.00 | 0.00 | 79 | 1007.5 |
| 20260504012813 | 53 | 159 | 2.0 | 6.0 | 0.00 | 0.00 | 0.00 | 79 | 1007.5 |
| 20260504012704 | 53 | 163 | 2.0 | 6.0 | 0.00 | 0.00 | 0.00 | 79 | 1007.5 |
| 20260504012615 | 53 | 168 | 2.0 | 8.0 | 0.00 | 0.00 | 0.00 | 79 | 1007.6 |
| 20260504012505 | 53 | 171 | 2.0 | 8.0 | 0.00 | 0.00 | 0.00 | 78 | 1007.6 |
| 20260504012415 | 53 | 171 | 2.0 | 10.0 | 0.00 | 0.00 | 0.00 | 78 | 1007.5 |
| 20260504012306 | 53 | 181 | 2.0 | 10.0 | 0.00 | 0.00 | 0.00 | 78 | 1007.6 |
| 20260504012201 | 53 | 156 | 2.0 | 10.0 | 0.00 | 0.00 | 0.00 | 78 | 1007.6 |
| 20260504012111 | 53 | 158 | 3.0 | 10.0 | 0.00 | 0.00 | 0.00 | 78 | 1007.5 |
| 20260504012002 | 53 | 167 | 3.0 | 10.0 | 0.00 | 0.00 | 0.00 | 78 | 1007.5 |
| 20260504011914 | 53 | 184 | 4.0 | 10.0 | 0.00 | 0.00 | 0.00 | 78 | 1007.5 |
| 20260504011807 | 53 | 161 | 4.0 | 10.0 | 0.00 | 0.00 | 0.00 | 78 | 1007.3 |
| 20260504011718 | 53 | 157 | 4.0 | 10.0 | 0.00 | 0.00 | 0.00 | 78 | 1007.3 |
| 20260504011629 | 53 | 155 | 4.0 | 10.0 | 0.00 | 0.00 | 0.00 | 78 | 1007.4 |
| 20260504011530 | 53 | 178 | 4.0 | 10.0 | 0.00 | 0.00 | 0.00 | 78 | 1007.4 |
| 20260504011420 | 53 | 157 | 4.0 | 10.0 | 0.00 | 0.00 | 0.00 | 78 | 1007.4 |
| 20260504011332 | 53 | 156 | 4.0 | 10.0 | 0.00 | 0.00 | 0.00 | 77 | 1007.4 |
| 20260504011205 | 54 | 157 | 5.0 | 10.0 | 0.00 | 0.00 | 0.00 | 77 | 1007.5 |
| 20260504011117 | 54 | 157 | 4.0 | 10.0 | 0.00 | 0.00 | 0.00 | 77 | 1007.4 |
| 20260504011007 | 54 | 152 | 3.0 | 9.0 | 0.00 | 0.00 | 0.00 | 77 | 1007.4 |
| 20260504010918 | 54 | 150 | 3.0 | 9.0 | 0.00 | 0.00 | 0.00 | 77 | 1007.5 |
| 20260504010808 | 54 | 163 | 3.0 | 9.0 | 0.00 | 0.00 | 0.00 | 77 | 1007.4 |
| 20260504010700 | 54 | 164 | 3.0 | 9.0 | 0.00 | 0.00 | 0.00 | 77 | 1007.4 |
| 20260504010611 | 54 | 153 | 3.0 | 9.0 | 0.00 | 0.00 | 0.00 | 77 | 1007.4 |
| 20260504010502 | 54 | 163 | 3.0 | 9.0 | 0.00 | 0.00 | 0.00 | 77 | 1007.4 |
| 20260504010412 | 54 | 153 | 3.0 | 9.0 | 0.00 | 0.00 | 0.00 | 77 | 1007.5 |
| 20260504010309 | 54 | 161 | 3.0 | 9.0 | 0.00 | 0.00 | 0.00 | 77 | 1007.4 |
| 20260504010218 | 54 | 141 | 3.0 | 9.0 | 0.00 | 0.00 | 0.00 | 76 | 1007.5 |
| 20260504010129 | 54 | 163 | 4.0 | 9.0 | 0.00 | 0.00 | 0.00 | 77 | 1007.5 |
| 20260504010051 | 54 | 151 | 4.0 | 9.0 | 0.00 | 0.00 | 0.00 | 76 | 1007.5 |
| 20260504005902 | 54 | 154 | 3.0 | 8.0 | 0.00 | 0.00 | 0.00 | 76 | 1007.5 |
| 20260504005813 | 54 | 157 | 2.0 | 8.0 | 0.00 | 0.00 | 0.00 | 76 | 1007.5 |
| 20260504005723 | 54 | 165 | 3.0 | 9.0 | 0.00 | 0.00 | 0.00 | 76 | 1007.6 |
| 20260504005633 | 54 | 151 | 3.0 | 9.0 | 0.00 | 0.00 | 0.00 | 76 | 1007.5 |
| 20260504005544 | 54 | 168 | 3.0 | 9.0 | 0.00 | 0.00 | 0.00 | 76 | 1007.5 |
| 20260504005454 | 54 | 177 | 2.0 | 9.0 | 0.00 | 0.00 | 0.00 | 76 | 1007.6 |
| 20260504005404 | 54 | 153 | 2.0 | 9.0 | 0.00 | 0.00 | 0.00 | 75 | 1007.5 |
| 20260504005237 | 54 | 211 | 1.0 | 9.0 | 0.00 | 0.00 | 0.00 | 75 | 1007.6 |
| 20260504005148 | 54 | 159 | 2.0 | 10.0 | 0.00 | 0.00 | 0.00 | 75 | 1007.6 |
| 20260504005037 | 54 | 148 | 4.0 | 10.0 | 0.00 | 0.00 | 0.00 | 75 | 1007.7 |
| 20260504004907 | 54 | 173 | 4.0 | 10.0 | 0.00 | 0.00 | 0.00 | 75 | 1007.7 |
| 20260504004817 | 54 | 173 | 2.0 | 10.0 | 0.00 | 0.00 | 0.00 | 75 | 1007.7 |
| 20260504004728 | 54 | 158 | 2.0 | 10.0 | 0.00 | 0.00 | 0.00 | 75 | 1007.8 |
| 20260504004640 | 54 | 180 | 3.0 | 10.0 | 0.00 | 0.00 | 0.00 | 75 | 1007.7 |
| 20260504004541 | 54 | 209 | 2.0 | 10.0 | 0.00 | 0.00 | 0.00 | 75 | 1007.7 |
| 20260504004430 | 54 | 164 | 4.0 | 10.0 | 0.00 | 0.00 | 0.00 | 74 | 1007.7 |
| 20260504004340 | 55 | 160 | 4.0 | 10.0 | 0.00 | 0.00 | 0.00 | 74 | 1007.7 |
| 20260504004209 | 55 | 167 | 3.0 | 9.0 | 0.00 | 0.00 | 0.00 | 74 | 1007.7 |
| 20260504004100 | 55 | 173 | 3.0 | 9.0 | 0.00 | 0.00 | 0.00 | 74 | 1007.7 |
| 20260504004010 | 55 | 157 | 4.0 | 9.0 | 0.00 | 0.00 | 0.00 | 74 | 1007.7 |
| 20260504003901 | 55 | 140 | 5.0 | 9.0 | 0.00 | 0.00 | 0.00 | 74 | 1007.6 |
| 20260504003811 | 55 | 172 | 4.0 | 9.0 | 0.00 | 0.00 | 0.00 | 74 | 1007.7 |
| 20260504003701 | 55 | 157 | 5.0 | 9.0 | 0.00 | 0.00 | 0.00 | 73 | 1007.7 |
| 20260504003613 | 55 | 154 | 4.0 | 9.0 | 0.00 | 0.00 | 0.00 | 73 | 1007.8 |
| 20260504003524 | 55 | 172 | 3.0 | 7.0 | 0.00 | 0.00 | 0.00 | 73 | 1007.7 |
| 20260504003434 | 55 | 207 | 3.0 | 7.0 | 0.00 | 0.00 | 0.00 | 73 | 1007.7 |
| 20260504003306 | 55 | 165 | 4.0 | 7.0 | 0.00 | 0.00 | 0.00 | 73 | 1007.8 |
| 20260504003201 | 55 | 175 | 3.0 | 8.0 | 0.00 | 0.00 | 0.00 | 73 | 1007.7 |
| 20260504003111 | 55 | 190 | 3.0 | 12.0 | 0.00 | 0.00 | 0.00 | 72 | 1007.7 |
| 20260504003033 | 55 | 157 | 4.0 | 12.0 | 0.00 | 0.00 | 0.00 | 72 | 1007.7 |
| 20260504002904 | 55 | 171 | 3.0 | 12.0 | 0.00 | 0.00 | 0.00 | 72 | 1007.7 |
| 20260504002816 | 55 | 206 | 3.0 | 12.0 | 0.00 | 0.00 | 0.00 | 72 | 1007.7 |
| 20260504002726 | 56 | 161 | 4.0 | 12.0 | 0.00 | 0.00 | 0.00 | 72 | 1007.8 |
| 20260504002616 | 56 | 206 | 4.0 | 12.0 | 0.00 | 0.00 | 0.00 | 72 | 1007.8 |
| 20260504002507 | 56 | 157 | 5.0 | 12.0 | 0.00 | 0.00 | 0.00 | 72 | 1007.7 |
| 20260504002419 | 56 | 159 | 5.0 | 12.0 | 0.00 | 0.00 | 0.00 | 72 | 1007.7 |
| 20260504002309 | 56 | 175 | 5.0 | 13.0 | 0.00 | 0.00 | 0.00 | 72 | 1007.7 |
| 20260504002204 | 56 | 162 | 5.0 | 10.0 | 0.00 | 0.00 | 0.00 | 72 | 1007.8 |
| 20260504002115 | 56 | 157 | 5.0 | 10.0 | 0.00 | 0.00 | 0.00 | 72 | 1007.8 |
| 20260504002007 | 56 | 169 | 5.0 | 10.0 | 0.00 | 0.00 | 0.00 | 71 | 1007.7 |
| 20260504001918 | 56 | 150 | 4.0 | 9.0 | 0.00 | 0.00 | 0.00 | 71 | 1007.8 |
| 20260504001809 | 56 | 166 | 4.0 | 9.0 | 0.00 | 0.00 | 0.00 | 71 | 1007.8 |
| 20260504001721 | 56 | 178 | 4.0 | 9.0 | 0.00 | 0.00 | 0.00 | 71 | 1007.8 |
| 20260504001631 | 56 | 171 | 5.0 | 12.0 | 0.00 | 0.00 | 0.00 | 71 | 1007.7 |
| 20260504001553 | 56 | 155 | 5.0 | 12.0 | 0.00 | 0.00 | 0.00 | 71 | 1007.8 |
| 20260504001402 | 56 | 156 | 4.0 | 12.0 | 0.00 | 0.00 | 0.00 | 71 | 1007.7 |
| 20260504001316 | 56 | 173 | 4.0 | 12.0 | 0.00 | 0.00 | 0.00 | 71 | 1007.9 |
| 20260504001208 | 56 | 157 | 3.0 | 12.0 | 0.00 | 0.00 | 0.00 | 71 | 1007.8 |
| 20260504001118 | 56 | 147 | 3.0 | 12.0 | 0.00 | 0.00 | 0.00 | 71 | 1007.8 |
| 20260504001008 | 56 | 172 | 5.0 | 12.0 | 0.00 | 0.00 | 0.00 | 71 | 1007.8 |
| 20260504000920 | 56 | 146 | 5.0 | 12.0 | 0.00 | 0.00 | 0.00 | 70 | 1007.8 |
| 20260504000809 | 56 | 151 | 5.0 | 9.0 | 0.00 | 0.00 | 0.00 | 70 | 1007.8 |
| 20260504000700 | 56 | 214 | 4.0 | 10.0 | 0.00 | 0.00 | 0.00 | 70 | 1007.8 |
| 20260504000611 | 56 | 188 | 4.0 | 10.0 | 0.00 | 0.00 | 0.00 | 70 | 1007.8 |
| 20260504000522 | 56 | 189 | 5.0 | 10.0 | 0.00 | 0.00 | 0.00 | 70 | 1007.8 |
| 20260504000416 | 56 | 182 | 4.0 | 12.0 | 0.00 | 0.00 | 0.00 | 70 | 1007.8 |
| 20260504000308 | 57 | 175 | 4.0 | 12.0 | 0.00 | 0.00 | 0.00 | 70 | 1007.8 |
| 20260504000219 | 57 | 182 | 4.0 | 12.0 | 0.00 | 0.00 | 0.00 | 70 | 1007.8 |
| 20260504000120 | 57 | 146 | 4.0 | 12.0 | 0.00 | 0.00 | 0.00 | 70 | 1007.9 |
| 20260504000022 | 57 | 169 | 5.0 | 12.0 | 0.00 | 0.00 | 0.00 | 69 | 1007.9 |
| 20260503235912 | 57 | 182 | 4.0 | 12.0 | 0.00 | 0.00 | 0.00 | 69 | 1007.9 |
| 20260503235822 | 57 | 207 | 5.0 | 12.0 | 0.00 | 0.00 | 0.00 | 69 | 1007.8 |
| 20260503235731 | 57 | 164 | 6.0 | 12.0 | 0.00 | 0.00 | 0.00 | 69 | 1007.8 |
| 20260503235602 | 57 | 171 | 5.0 | 12.0 | 0.00 | 0.00 | 0.00 | 69 | 1007.9 |
| 20260503235512 | 57 | 145 | 4.0 | 12.0 | 0.00 | 0.00 | 0.00 | 69 | 1007.9 |
| 20260503235406 | 57 | 160 | 3.0 | 12.0 | 0.00 | 0.00 | 0.00 | 69 | 1007.9 |
| 20260503235319 | 57 | 213 | 4.0 | 12.0 | 0.00 | 0.00 | 0.00 | 69 | 1007.9 |
| 20260503235211 | 57 | 248 | 5.0 | 12.0 | 0.00 | 0.00 | 0.00 | 68 | 1007.9 |
| 20260503235102 | 57 | 159 | 5.0 | 12.0 | 0.00 | 0.00 | 0.00 | 68 | 1008.0 |
| 20260503235012 | 57 | 168 | 5.0 | 12.0 | 0.00 | 0.00 | 0.00 | 68 | 1008.0 |
| 20260503234923 | 57 | 160 | 5.0 | 12.0 | 0.00 | 0.00 | 0.00 | 68 | 1007.9 |
| 20260503234813 | 57 | 173 | 4.0 | 10.0 | 0.00 | 0.00 | 0.00 | 68 | 1008.0 |
| 20260503234702 | 57 | 180 | 4.0 | 10.0 | 0.00 | 0.00 | 0.00 | 68 | 1008.0 |
| 20260503234615 | 57 | 192 | 4.0 | 10.0 | 0.00 | 0.00 | 0.00 | 68 | 1007.9 |
| 20260503234540 | 57 | 162 | 4.0 | 10.0 | 0.00 | 0.00 | 0.00 | 68 | 1008.1 |
| 20260503234429 | 57 | 150 | 4.0 | 10.0 | 0.00 | 0.00 | 0.00 | 68 | 1007.9 |
| 20260503234319 | 57 | 161 | 3.0 | 10.0 | 0.00 | 0.00 | 0.00 | 68 | 1008.0 |
| 20260503234208 | 57 | 155 | 3.0 | 11.0 | 0.00 | 0.00 | 0.00 | 69 | 1007.9 |
| 20260503234100 | 57 | 314 | 4.0 | 11.0 | 0.00 | 0.00 | 0.00 | 68 | 1008.0 |
| 20260503234010 | 57 | 210 | 5.0 | 11.0 | 0.00 | 0.00 | 0.00 | 68 | 1008.0 |
| 20260503233901 | 57 | 80 | 5.0 | 14.0 | 0.00 | 0.00 | 0.00 | 68 | 1008.0 |
| 20260503233812 | 57 | 306 | 4.0 | 14.0 | 0.00 | 0.00 | 0.00 | 68 | 1008.1 |
| 20260503233701 | 57 | 140 | 3.0 | 14.0 | 0.00 | 0.00 | 0.00 | 68 | 1008.0 |
| 20260503233611 | 57 | 269 | 4.0 | 14.0 | 0.00 | 0.00 | 0.00 | 68 | 1007.9 |
| 20260503233505 | 58 | 93 | 4.0 | 14.0 | 0.00 | 0.00 | 0.00 | 68 | 1007.9 |
| 20260503233416 | 57 | 178 | 4.0 | 14.0 | 0.00 | 0.00 | 0.00 | 68 | 1008.0 |
| 20260503233329 | 57 | 313 | 5.0 | 14.0 | 0.00 | 0.00 | 0.00 | 68 | 1008.0 |
| 20260503233217 | 57 | 263 | 6.0 | 14.0 | 0.00 | 0.00 | 0.00 | 68 | 1008.0 |
| 20260503233128 | 57 | 165 | 8.0 | 14.0 | 0.00 | 0.00 | 0.00 | 68 | 1008.0 |
| 20260503233030 | 57 | 149 | 7.0 | 11.0 | 0.00 | 0.00 | 0.00 | 68 | 1008.0 |
| 20260503232919 | 58 | 156 | 6.0 | 11.0 | 0.00 | 0.00 | 0.00 | 67 | 1008.0 |
| 20260503232828 | 57 | 156 | 5.0 | 12.0 | 0.00 | 0.00 | 0.00 | 67 | 1008.1 |
| 20260503232739 | 58 | 159 | 4.0 | 12.0 | 0.00 | 0.00 | 0.00 | 68 | 1008.1 |
| 20260503232629 | 58 | 130 | 5.0 | 12.0 | 0.00 | 0.00 | 0.00 | 67 | 1008.1 |
| 20260503232500 | 58 | 165 | 4.0 | 12.0 | 0.00 | 0.00 | 0.00 | 68 | 1008.1 |
| 20260503232416 | 58 | 223 | 4.0 | 12.0 | 0.00 | 0.00 | 0.00 | 68 | 1008.1 |
| 20260503232326 | 58 | 181 | 5.0 | 12.0 | 0.00 | 0.00 | 0.00 | 67 | 1008.1 |
| 20260503232236 | 58 | 266 | 6.0 | 12.0 | 0.00 | 0.00 | 0.00 | 68 | 1008.1 |
| 20260503232107 | 58 | 193 | 6.0 | 12.0 | 0.00 | 0.00 | 0.00 | 68 | 1008.2 |
| 20260503232017 | 58 | 234 | 5.0 | 12.0 | 0.00 | 0.00 | 0.00 | 67 | 1008.2 |
| 20260503231927 | 58 | 150 | 5.0 | 12.0 | 0.00 | 0.00 | 0.00 | 67 | 1008.2 |
| 20260503231838 | 58 | 112 | 5.0 | 12.0 | 0.00 | 0.00 | 0.00 | 66 | 1008.3 |
| 20260503231708 | 58 | 150 | 6.0 | 11.0 | 0.00 | 0.00 | 0.00 | 67 | 1008.3 |
| 20260503231618 | 58 | 219 | 6.0 | 11.0 | 0.00 | 0.00 | 0.00 | 66 | 1008.4 |
| 20260503231541 | 58 | 133 | 5.0 | 11.0 | 0.00 | 0.00 | 0.00 | 67 | 1008.4 |
| 20260503231415 | 58 | 281 | 4.0 | 11.0 | 0.00 | 0.00 | 0.00 | 67 | 1008.5 |
| 20260503231327 | 58 | 158 | 3.0 | 10.0 | 0.00 | 0.00 | 0.00 | 68 | 1008.5 |
| 20260503231237 | 58 | 35 | 4.0 | 11.0 | 0.00 | 0.00 | 0.00 | 67 | 1008.5 |
| 20260503231106 | 58 | 215 | 4.0 | 13.0 | 0.00 | 0.00 | 0.00 | 67 | 1008.5 |
| 20260503231018 | 58 | 325 | 5.0 | 13.0 | 0.00 | 0.00 | 0.00 | 67 | 1008.5 |
| 20260503230907 | 58 | 154 | 5.0 | 13.0 | 0.00 | 0.00 | 0.00 | 67 | 1008.5 |
| 20260503230818 | 58 | 146 | 5.0 | 13.0 | 0.00 | 0.00 | 0.00 | 67 | 1008.6 |
| 20260503230730 | 58 | 163 | 5.0 | 13.0 | 0.00 | 0.00 | 0.00 | 67 | 1008.6 |
| 20260503230640 | 58 | 308 | 5.0 | 13.0 | 0.00 | 0.00 | 0.00 | 67 | 1008.7 |
| 20260503230510 | 58 | 127 | 5.0 | 13.0 | 0.00 | 0.00 | 0.00 | 66 | 1008.6 |
| 20260503230406 | 58 | 142 | 6.0 | 13.0 | 0.00 | 0.00 | 0.00 | 66 | 1008.7 |
| 20260503230318 | 58 | 51 | 5.0 | 13.0 | 0.00 | 0.00 | 0.00 | 66 | 1008.7 |
| 20260503230228 | 58 | 63 | 4.0 | 11.0 | 0.00 | 0.00 | 0.00 | 67 | 1008.6 |
| 20260503230138 | 58 | 57 | 4.0 | 11.0 | 0.00 | 0.00 | 0.00 | 67 | 1008.7 |
| 20260503230100 | 58 | 175 | 4.0 | 11.0 | 0.00 | 0.00 | 0.00 | 67 | 1008.8 |
| 20260503225907 | 58 | 84 | 3.0 | 11.0 | 0.00 | 0.00 | 0.00 | 67 | 1008.7 |
| 20260503225819 | 57 | 263 | 4.0 | 11.0 | 0.00 | 0.00 | 0.00 | 67 | 1008.7 |
| 20260503225731 | 57 | 154 | 3.0 | 11.0 | 0.00 | 0.00 | 0.00 | 66 | 1008.7 |
| 20260503225620 | 57 | 309 | 4.0 | 11.0 | 0.00 | 0.00 | 0.00 | 67 | 1008.7 |
| 20260503225532 | 58 | 163 | 3.0 | 11.0 | 0.00 | 0.00 | 0.00 | 66 | 1008.8 |
| 20260503225405 | 58 | 292 | 4.0 | 11.0 | 0.00 | 0.00 | 0.00 | 66 | 1008.7 |
| 20260503225317 | 58 | 284 | 4.0 | 11.0 | 0.00 | 0.00 | 0.00 | 66 | 1008.8 |
| 20260503225228 | 58 | 314 | 4.0 | 11.0 | 0.00 | 0.00 | 0.00 | 67 | 1008.8 |
| 20260503225140 | 58 | 226 | 4.0 | 11.0 | 0.00 | 0.00 | 0.00 | 66 | 1008.8 |
| 20260503225008 | 58 | 158 | 5.0 | 11.0 | 0.00 | 0.00 | 0.00 | 66 | 1008.8 |
| 20260503224918 | 58 | 281 | 5.0 | 11.0 | 0.00 | 0.00 | 0.00 | 66 | 1008.9 |
| 20260503224809 | 58 | 180 | 5.0 | 11.0 | 0.00 | 0.00 | 0.00 | 66 | 1008.8 |
| 20260503224719 | 58 | 52 | 4.0 | 11.0 | 0.00 | 0.00 | 0.00 | 66 | 1008.8 |
| 20260503224620 | 58 | 196 | 5.0 | 11.0 | 0.00 | 0.00 | 0.00 | 66 | 1008.9 |
| 20260503224521 | 58 | 192 | 4.0 | 14.0 | 0.00 | 0.00 | 0.00 | 66 | 1008.8 |
| 20260503224414 | 58 | 101 | 4.0 | 14.0 | 0.00 | 0.00 | 0.00 | 67 | 1008.9 |
| 20260503224304 | 58 | 257 | 5.0 | 14.0 | 0.00 | 0.00 | 0.00 | 66 | 1008.9 |
| 20260503224214 | 57 | 46 | 4.0 | 14.0 | 0.00 | 0.00 | 0.00 | 67 | 1008.9 |
| 20260503224125 | 57 | 182 | 4.0 | 14.0 | 0.00 | 0.00 | 0.00 | 67 | 1008.9 |
| 20260503224038 | 57 | 212 | 3.0 | 14.0 | 0.00 | 0.00 | 0.00 | 67 | 1009.0 |
| 20260503223908 | 57 | 236 | 5.0 | 14.0 | 0.00 | 0.00 | 0.00 | 66 | 1008.9 |
| 20260503223818 | 57 | 151 | 7.0 | 14.0 | 0.00 | 0.00 | 0.00 | 66 | 1009.0 |
| 20260503223710 | 57 | 157 | 6.0 | 12.0 | 0.00 | 0.00 | 0.00 | 66 | 1008.9 |
| 20260503223601 | 57 | 138 | 5.0 | 12.0 | 0.00 | 0.00 | 0.00 | 66 | 1009.0 |
| 20260503223516 | 57 | 170 | 6.0 | 11.0 | 0.00 | 0.00 | 0.00 | 66 | 1009.0 |
| 20260503223405 | 57 | 162 | 6.0 | 11.0 | 0.00 | 0.00 | 0.00 | 66 | 1009.0 |
| 20260503223317 | 57 | 200 | 5.0 | 11.0 | 0.00 | 0.00 | 0.00 | 66 | 1009.0 |
| 20260503223208 | 57 | 126 | 4.0 | 11.0 | 0.00 | 0.00 | 0.00 | 66 | 1009.0 |
| 20260503223119 | 57 | 174 | 5.0 | 11.0 | 0.00 | 0.00 | 0.00 | 66 | 1009.0 |
| 20260503223040 | 57 | 294 | 4.0 | 11.0 | 0.00 | 0.00 | 0.00 | 66 | 1009.1 |
| 20260503222910 | 57 | 279 | 4.0 | 11.0 | 0.00 | 0.00 | 0.00 | 67 | 1009.1 |
| 20260503222800 | 57 | 223 | 5.0 | 11.0 | 0.00 | 0.00 | 0.00 | 68 | 1009.1 |
| 20260503222710 | 57 | 235 | 4.0 | 10.0 | 0.00 | 0.00 | 0.00 | 68 | 1009.0 |
| 20260503222604 | 57 | 276 | 4.0 | 10.0 | 0.00 | 0.00 | 0.00 | 68 | 1009.0 |
| 20260503222515 | 57 | 134 | 3.0 | 10.0 | 0.00 | 0.00 | 0.00 | 68 | 1009.0 |
| 20260503222425 | 57 | 268 | 4.0 | 10.0 | 0.00 | 0.00 | 0.00 | 68 | 1009.1 |
| 20260503222335 | 57 | 296 | 5.0 | 10.0 | 0.00 | 0.00 | 0.00 | 67 | 1009.1 |
| 20260503222224 | 57 | 148 | 5.0 | 10.0 | 0.00 | 0.00 | 0.00 | 68 | 1009.1 |
| 20260503222113 | 56 | 291 | 5.0 | 10.0 | 0.00 | 0.00 | 0.00 | 68 | 1009.1 |
| 20260503222026 | 56 | 155 | 5.0 | 12.0 | 0.00 | 0.00 | 0.00 | 68 | 1009.1 |
| 20260503221915 | 56 | 147 | 5.0 | 12.0 | 0.00 | 0.00 | 0.00 | 68 | 1009.1 |
| 20260503221804 | 56 | 238 | 4.0 | 12.0 | 0.00 | 0.00 | 0.00 | 68 | 1009.1 |
| 20260503221717 | 56 | 159 | 4.0 | 12.0 | 0.00 | 0.00 | 0.00 | 68 | 1009.2 |
| 20260503221626 | 56 | 215 | 3.0 | 12.0 | 0.00 | 0.00 | 0.00 | 69 | 1009.2 |
| 20260503221531 | 56 | 159 | 3.0 | 12.0 | 0.00 | 0.00 | 0.00 | 69 | 1009.3 |
| 20260503221422 | 56 | 250 | 3.0 | 12.0 | 0.00 | 0.00 | 0.00 | 68 | 1009.2 |
| 20260503221310 | 56 | 157 | 5.0 | 12.0 | 0.00 | 0.00 | 0.00 | 68 | 1009.2 |
| 20260503221221 | 56 | 161 | 6.0 | 12.0 | 0.00 | 0.00 | 0.00 | 68 | 1009.2 |
| 20260503221112 | 56 | 142 | 6.0 | 12.0 | 0.00 | 0.00 | 0.00 | 67 | 1009.2 |
| 20260503221003 | 56 | 150 | 5.0 | 12.0 | 0.00 | 0.00 | 0.00 | 68 | 1009.2 |
| 20260503220914 | 56 | 120 | 5.0 | 12.0 | 0.00 | 0.00 | 0.00 | 68 | 1009.3 |
| 20260503220805 | 56 | 168 | 6.0 | 12.0 | 0.00 | 0.00 | 0.00 | 68 | 1009.3 |
| 20260503220716 | 56 | 194 | 6.0 | 13.0 | 0.00 | 0.00 | 0.00 | 69 | 1009.4 |
| 20260503220606 | 56 | 150 | 6.0 | 11.0 | 0.00 | 0.00 | 0.00 | 69 | 1009.4 |
| 20260503220522 | 56 | 170 | 6.0 | 11.0 | 0.00 | 0.00 | 0.00 | 69 | 1009.4 |
| 20260503220432 | 56 | 142 | 5.0 | 11.0 | 0.00 | 0.00 | 0.00 | 69 | 1009.4 |
| 20260503220322 | 56 | 217 | 4.0 | 11.0 | 0.00 | 0.00 | 0.00 | 70 | 1009.4 |
| 20260503220230 | 56 | 136 | 5.0 | 11.0 | 0.00 | 0.00 | 0.00 | 69 | 1009.5 |
| 20260503220100 | 55 | 90 | 5.0 | 11.0 | 0.00 | 0.00 | 0.00 | 69 | 1009.4 |
| 20260503220021 | 55 | 220 | 5.0 | 12.0 | 0.00 | 0.00 | 0.00 | 68 | 1009.4 |
| 20260503215911 | 56 | 142 | 5.0 | 12.0 | 0.00 | 0.00 | 0.00 | 69 | 1009.6 |
| 20260503215803 | 56 | 91 | 4.0 | 12.0 | 0.00 | 0.00 | 0.00 | 69 | 1009.5 |
| 20260503215713 | 56 | 149 | 4.0 | 12.0 | 0.00 | 0.00 | 0.00 | 69 | 1009.4 |
| 20260503215604 | 56 | 161 | 4.0 | 12.0 | 0.00 | 0.00 | 0.00 | 70 | 1009.5 |
| 20260503215518 | 56 | 150 | 4.0 | 12.0 | 0.00 | 0.00 | 0.00 | 70 | 1009.5 |
| 20260503215409 | 55 | 298 | 4.0 | 12.0 | 0.00 | 0.00 | 0.00 | 70 | 1009.7 |
| 20260503215320 | 55 | 157 | 5.0 | 12.0 | 0.00 | 0.00 | 0.00 | 69 | 1009.5 |
| 20260503215230 | 55 | 157 | 5.0 | 12.0 | 0.00 | 0.00 | 0.00 | 69 | 1009.5 |
| 20260503215140 | 55 | 154 | 4.0 | 12.0 | 0.00 | 0.00 | 0.00 | 70 | 1009.6 |
| 20260503215010 | 55 | 194 | 3.0 | 11.0 | 0.00 | 0.00 | 0.00 | 70 | 1009.5 |
| 20260503214920 | 55 | 340 | 4.0 | 16.0 | 0.00 | 0.00 | 0.00 | 69 | 1009.6 |
| 20260503214831 | 55 | 223 | 5.0 | 16.0 | 0.00 | 0.00 | 0.00 | 69 | 1009.6 |
| 20260503214700 | 55 | 160 | 7.0 | 16.0 | 0.00 | 0.00 | 0.00 | 69 | 1009.5 |
| 20260503214610 | 55 | 149 | 6.0 | 16.0 | 0.00 | 0.00 | 0.00 | 70 | 1009.6 |
| 20260503214536 | 55 | 151 | 5.0 | 16.0 | 0.00 | 0.00 | 0.00 | 70 | 1009.6 |
| 20260503214406 | 55 | 170 | 5.0 | 16.0 | 0.00 | 0.00 | 0.00 | 70 | 1009.6 |
| 20260503214317 | 55 | 161 | 6.0 | 16.0 | 0.00 | 0.00 | 0.00 | 70 | 1009.6 |
| 20260503214207 | 55 | 176 | 5.0 | 16.0 | 0.00 | 0.00 | 0.00 | 69 | 1009.6 |
| 20260503214118 | 55 | 233 | 6.0 | 16.0 | 0.00 | 0.00 | 0.00 | 69 | 1009.6 |
| 20260503214008 | 55 | 155 | 5.0 | 14.0 | 0.00 | 0.00 | 0.00 | 70 | 1009.7 |
| 20260503213919 | 55 | 152 | 5.0 | 14.0 | 0.00 | 0.00 | 0.00 | 71 | 1009.7 |
| 20260503213809 | 54 | 153 | 5.0 | 14.0 | 0.00 | 0.00 | 0.00 | 72 | 1009.7 |
| 20260503213721 | 54 | 164 | 5.0 | 14.0 | 0.00 | 0.00 | 0.00 | 73 | 1009.7 |
| 20260503213615 | 54 | 184 | 5.0 | 14.0 | 0.00 | 0.00 | 0.00 | 72 | 1009.7 |
| 20260503213505 | 54 | 153 | 5.0 | 11.0 | 0.00 | 0.00 | 0.00 | 70 | 1009.7 |
| 20260503213416 | 54 | 146 | 5.0 | 11.0 | 0.00 | 0.00 | 0.00 | 70 | 1009.7 |
| 20260503213310 | 54 | 154 | 6.0 | 13.0 | 0.00 | 0.00 | 0.00 | 70 | 1009.6 |
| 20260503213218 | 54 | 168 | 6.0 | 13.0 | 0.00 | 0.00 | 0.00 | 71 | 1009.7 |
| 20260503213109 | 54 | 138 | 5.0 | 13.0 | 0.00 | 0.00 | 0.00 | 71 | 1009.8 |
| 20260503213031 | 54 | 208 | 5.0 | 13.0 | 0.00 | 0.00 | 0.00 | 72 | 1009.7 |
| 20260503212902 | 54 | 169 | 6.0 | 13.0 | 0.00 | 0.00 | 0.00 | 72 | 1009.7 |
| 20260503212812 | 54 | 261 | 5.0 | 13.0 | 0.00 | 0.00 | 0.00 | 72 | 1009.7 |
| 20260503212707 | 53 | 141 | 5.0 | 13.0 | 0.00 | 0.00 | 0.00 | 72 | 1009.8 |
| 20260503212617 | 53 | 148 | 5.0 | 13.0 | 0.00 | 0.00 | 0.00 | 72 | 1009.7 |
| 20260503212527 | 53 | 159 | 5.0 | 13.0 | 0.00 | 0.00 | 0.00 | 72 | 1009.8 |
| 20260503212438 | 53 | 286 | 5.0 | 12.0 | 0.00 | 0.00 | 0.00 | 72 | 1009.9 |
| 20260503212308 | 53 | 130 | 6.0 | 12.0 | 0.00 | 0.00 | 0.00 | 72 | 1009.8 |
| 20260503212218 | 53 | 149 | 5.0 | 12.0 | 0.00 | 0.00 | 0.00 | 73 | 1009.8 |
| 20260503212109 | 53 | 150 | 3.0 | 11.0 | 0.00 | 0.00 | 0.00 | 72 | 1010.0 |
| 20260503212019 | 53 | 313 | 4.0 | 11.0 | 0.00 | 0.00 | 0.00 | 72 | 1010.0 |
| 20260503211910 | 53 | 281 | 5.0 | 11.0 | 0.00 | 0.00 | 0.00 | 72 | 1009.9 |
| 20260503211805 | 53 | 249 | 6.0 | 11.0 | 0.00 | 0.00 | 0.00 | 72 | 1009.9 |
| 20260503211717 | 53 | 230 | 5.0 | 11.0 | 0.00 | 0.00 | 0.00 | 72 | 1009.8 |
| 20260503211528 | 53 | 155 | 4.0 | 10.0 | 0.00 | 0.00 | 0.00 | 72 | 1010.0 |
| 20260503211418 | 53 | 152 | 4.0 | 11.0 | 0.00 | 0.00 | 0.00 | 72 | 1010.0 |
| 20260503211309 | 53 | 194 | 3.0 | 11.0 | 0.00 | 0.00 | 0.00 | 73 | 1010.0 |
| 20260503211219 | 53 | 129 | 3.0 | 11.0 | 0.00 | 0.00 | 0.00 | 74 | 1010.1 |
| 20260503211110 | 53 | 150 | 3.0 | 11.0 | 0.00 | 0.00 | 0.00 | 73 | 1010.0 |
| 20260503211000 | 53 | 167 | 4.0 | 11.0 | 0.00 | 0.00 | 0.00 | 73 | 1010.0 |
| 20260503210915 | 53 | 139 | 6.0 | 11.0 | 0.00 | 0.00 | 0.00 | 73 | 1010.0 |
| 20260503210825 | 53 | 189 | 5.0 | 11.0 | 0.00 | 0.00 | 0.00 | 73 | 1010.1 |
| 20260503210736 | 53 | 173 | 5.0 | 11.0 | 0.00 | 0.00 | 0.00 | 73 | 1010.1 |
| 20260503210648 | 53 | 187 | 5.0 | 15.0 | 0.00 | 0.00 | 0.00 | 73 | 1010.1 |
| 20260503210538 | 53 | 168 | 4.0 | 15.0 | 0.00 | 0.00 | 0.00 | 73 | 1010.0 |
| 20260503210427 | 53 | 167 | 3.0 | 15.0 | 0.00 | 0.00 | 0.00 | 73 | 1010.1 |
| 20260503210337 | 53 | 159 | 3.0 | 15.0 | 0.00 | 0.00 | 0.00 | 73 | 1010.1 |
| 20260503210249 | 53 | 248 | 3.0 | 15.0 | 0.00 | 0.00 | 0.00 | 74 | 1010.1 |
| 20260503210159 | 52 | 233 | 4.0 | 15.0 | 0.00 | 0.00 | 0.00 | 74 | 1010.1 |
| 20260503210120 | 52 | 32 | 4.0 | 15.0 | 0.00 | 0.00 | 0.00 | 74 | 1010.1 |
| 20260503205948 | 52 | 150 | 5.0 | 15.0 | 0.00 | 0.00 | 0.00 | 73 | 1010.2 |
| 20260503205838 | 52 | 213 | 6.0 | 15.0 | 0.00 | 0.00 | 0.00 | 73 | 1010.0 |
| 20260503205726 | 52 | 261 | 4.0 | 11.0 | 0.00 | 0.00 | 0.00 | 74 | 1010.2 |
| 20260503205641 | 52 | 140 | 4.0 | 10.0 | 0.00 | 0.00 | 0.00 | 73 | 1010.2 |
| 20260503205552 | 52 | 161 | 5.0 | 10.0 | 0.00 | 0.00 | 0.00 | 73 | 1010.2 |
| 20260503205441 | 52 | 311 | 5.0 | 9.0 | 0.00 | 0.00 | 0.00 | 73 | 1010.2 |
| 20260503205330 | 52 | 175 | 6.0 | 11.0 | 0.00 | 0.00 | 0.00 | 73 | 1010.3 |
| 20260503205240 | 52 | 157 | 5.0 | 12.0 | 0.00 | 0.00 | 0.00 | 74 | 1010.3 |
| 20260503205129 | 52 | 251 | 5.0 | 14.0 | 0.00 | 0.00 | 0.00 | 74 | 1010.4 |
| 20260503205020 | 52 | 221 | 4.0 | 14.0 | 0.00 | 0.00 | 0.00 | 74 | 1010.3 |
| 20260503204930 | 52 | 155 | 4.0 | 14.0 | 0.00 | 0.00 | 0.00 | 74 | 1010.3 |
| 20260503204841 | 52 | 141 | 4.0 | 14.0 | 0.00 | 0.00 | 0.00 | 74 | 1010.3 |
| 20260503204711 | 52 | 212 | 4.0 | 14.0 | 0.00 | 0.00 | 0.00 | 73 | 1010.4 |
| 20260503204602 | 52 | 137 | 6.0 | 14.0 | 0.00 | 0.00 | 0.00 | 73 | 1010.3 |
| 20260503204526 | 52 | 155 | 7.0 | 14.0 | 0.00 | 0.00 | 0.00 | 73 | 1010.5 |
| 20260503204415 | 52 | 188 | 7.0 | 14.0 | 0.00 | 0.00 | 0.00 | 74 | 1010.5 |
| 20260503204305 | 52 | 260 | 6.0 | 14.0 | 0.00 | 0.00 | 0.00 | 73 | 1010.4 |
| 20260503204216 | 52 | 167 | 5.0 | 14.0 | 0.00 | 0.00 | 0.00 | 74 | 1010.4 |
| 20260503204107 | 52 | 254 | 4.0 | 11.0 | 0.00 | 0.00 | 0.00 | 74 | 1010.5 |
| 20260503204018 | 52 | 105 | 4.0 | 11.0 | 0.00 | 0.00 | 0.00 | 74 | 1010.5 |
| 20260503203908 | 52 | 107 | 3.0 | 10.0 | 0.00 | 0.00 | 0.00 | 75 | 1010.5 |
| 20260503203818 | 52 | 292 | 4.0 | 10.0 | 0.00 | 0.00 | 0.00 | 74 | 1010.5 |
| 20260503203710 | 52 | 189 | 5.0 | 10.0 | 0.00 | 0.00 | 0.00 | 74 | 1010.4 |
| 20260503203624 | 52 | 146 | 5.0 | 10.0 | 0.00 | 0.00 | 0.00 | 74 | 1010.4 |
| 20260503203535 | 52 | 163 | 4.0 | 9.0 | 0.00 | 0.00 | 0.00 | 75 | 1010.5 |
| 20260503203404 | 52 | 360 | 4.0 | 9.0 | 0.00 | 0.00 | 0.00 | 74 | 1010.5 |
| 20260503203316 | 52 | 162 | 4.0 | 9.0 | 0.00 | 0.00 | 0.00 | 74 | 1010.6 |
| 20260503203225 | 52 | 288 | 5.0 | 9.0 | 0.00 | 0.00 | 0.00 | 74 | 1010.6 |
| 20260503203115 | 52 | 198 | 5.0 | 9.0 | 0.00 | 0.00 | 0.00 | 74 | 1010.6 |
| 20260503203037 | 52 | 242 | 5.0 | 9.0 | 0.00 | 0.00 | 0.00 | 74 | 1010.5 |
| 20260503202907 | 52 | 154 | 4.0 | 9.0 | 0.00 | 0.00 | 0.00 | 74 | 1010.6 |
| 20260503202817 | 52 | 53 | 4.0 | 9.0 | 0.00 | 0.00 | 0.00 | 74 | 1010.6 |
| 20260503202709 | 52 | 153 | 5.0 | 9.0 | 0.00 | 0.00 | 0.00 | 74 | 1010.7 |
| 20260503202604 | 52 | 244 | 5.0 | 10.0 | 0.00 | 0.00 | 0.00 | 74 | 1010.7 |
| 20260503202514 | 52 | 150 | 4.0 | 10.0 | 0.00 | 0.00 | 0.00 | 74 | 1010.7 |
| 20260503202427 | 52 | 156 | 3.0 | 10.0 | 0.00 | 0.00 | 0.00 | 75 | 1010.7 |
| 20260503202337 | 52 | 149 | 3.0 | 10.0 | 0.00 | 0.00 | 0.00 | 75 | 1010.8 |
| 20260503202247 | 52 | 166 | 3.0 | 11.0 | 0.00 | 0.00 | 0.00 | 74 | 1010.9 |
| 20260503202136 | 52 | 261 | 3.0 | 11.0 | 0.00 | 0.00 | 0.00 | 74 | 1010.9 |
| 20260503202005 | 52 | 226 | 3.0 | 11.0 | 0.00 | 0.00 | 0.00 | 74 | 1010.9 |
| 20260503201917 | 52 | 219 | 3.0 | 11.0 | 0.00 | 0.00 | 0.00 | 74 | 1011.0 |
| 20260503201808 | 52 | 269 | 4.0 | 11.0 | 0.00 | 0.00 | 0.00 | 74 | 1011.0 |
| 20260503201703 | 52 | 162 | 3.0 | 12.0 | 0.00 | 0.00 | 0.00 | 74 | 1011.1 |
| 20260503201614 | 52 | 125 | 3.0 | 12.0 | 0.00 | 0.00 | 0.00 | 74 | 1011.0 |
| 20260503201535 | 52 | 108 | 4.0 | 12.0 | 0.00 | 0.00 | 0.00 | 74 | 1011.0 |
| 20260503201424 | 52 | 300 | 5.0 | 12.0 | 0.00 | 0.00 | 0.00 | 74 | 1011.0 |
| 20260503201335 | 52 | 217 | 3.0 | 12.0 | 0.00 | 0.00 | 0.00 | 74 | 1011.1 |
| 20260503201204 | 52 | 329 | 4.0 | 12.0 | 0.00 | 0.00 | 0.00 | 74 | 1011.0 |
| 20260503201115 | 52 | 147 | 6.0 | 12.0 | 0.00 | 0.00 | 0.00 | 74 | 1011.1 |
| 20260503201026 | 52 | 175 | 6.0 | 12.0 | 0.00 | 0.00 | 0.00 | 74 | 1011.1 |
| 20260503200936 | 52 | 151 | 3.0 | 12.0 | 0.00 | 0.00 | 0.00 | 74 | 1011.2 |
| 20260503200806 | 52 | 329 | 4.0 | 11.0 | 0.00 | 0.00 | 0.00 | 74 | 1011.2 |
| 20260503200701 | 52 | 189 | 4.0 | 11.0 | 0.00 | 0.00 | 0.00 | 74 | 1011.3 |
| 20260503200611 | 52 | 235 | 3.0 | 11.0 | 0.00 | 0.00 | 0.00 | 74 | 1011.3 |
| 20260503200503 | 52 | 223 | 4.0 | 11.0 | 0.00 | 0.00 | 0.00 | 74 | 1011.3 |
| 20260503200414 | 52 | 232 | 5.0 | 11.0 | 0.00 | 0.00 | 0.00 | 74 | 1011.3 |
| 20260503200326 | 52 | 128 | 5.0 | 11.0 | 0.00 | 0.00 | 0.00 | 73 | 1011.5 |
| 20260503200234 | 52 | 278 | 5.0 | 10.0 | 0.00 | 0.00 | 0.00 | 73 | 1011.4 |
| 20260503200124 | 52 | 248 | 4.0 | 12.0 | 0.00 | 0.00 | 0.00 | 74 | 1011.6 |
| 20260503200046 | 52 | 267 | 3.0 | 14.0 | 0.00 | 0.00 | 0.00 | 74 | 1011.5 |
| 20260503195914 | 52 | 224 | 3.0 | 14.0 | 0.00 | 0.00 | 0.00 | 74 | 1011.6 |
| 20260503195805 | 52 | 338 | 4.0 | 14.0 | 0.00 | 0.00 | 0.00 | 73 | 1011.8 |
| 20260503195701 | 52 | 134 | 5.0 | 14.0 | 0.00 | 0.00 | 0.00 | 73 | 1011.7 |
| 20260503195612 | 52 | 83 | 6.0 | 14.0 | 0.00 | 0.00 | 0.00 | 73 | 1011.8 |
| 20260503195503 | 52 | 230 | 6.0 | 14.0 | 0.00 | 0.00 | 0.00 | 73 | 1011.8 |
| 20260503195414 | 52 | 242 | 8.0 | 14.0 | 0.00 | 0.00 | 0.00 | 73 | 1011.7 |
| 20260503195307 | 52 | 230 | 8.0 | 17.0 | 0.00 | 0.00 | 0.00 | 72 | 1011.7 |
| 20260503195219 | 52 | 252 | 8.0 | 17.0 | 0.00 | 0.00 | 0.00 | 72 | 1011.8 |
| 20260503195109 | 52 | 229 | 8.0 | 17.0 | 0.00 | 0.00 | 0.00 | 72 | 1011.8 |
| 20260503195000 | 52 | 220 | 7.0 | 17.0 | 0.00 | 0.00 | 0.00 | 73 | 1011.9 |
| 20260503194912 | 52 | 209 | 6.0 | 17.0 | 0.00 | 0.00 | 0.00 | 73 | 1011.9 |
| 20260503194809 | 52 | 182 | 5.0 | 17.0 | 0.00 | 0.00 | 0.00 | 72 | 1011.8 |
| 20260503194718 | 52 | 138 | 8.0 | 17.0 | 0.00 | 0.00 | 0.00 | 72 | 1011.9 |
| 20260503194628 | 52 | 244 | 9.0 | 17.0 | 0.00 | 0.00 | 0.00 | 72 | 1011.8 |
| 20260503194529 | 52 | 199 | 9.0 | 17.0 | 0.00 | 0.00 | 0.00 | 72 | 1011.8 |
| 20260503194419 | 52 | 236 | 7.0 | 12.0 | 0.00 | 0.00 | 0.00 | 72 | 1011.7 |
| 20260503194310 | 52 | 219 | 6.0 | 13.0 | 0.00 | 0.00 | 0.00 | 72 | 1011.8 |
| 20260503194219 | 52 | 126 | 6.0 | 13.0 | 0.00 | 0.00 | 0.00 | 72 | 1011.8 |
| 20260503194130 | 52 | 169 | 6.0 | 13.0 | 0.00 | 0.00 | 0.00 | 72 | 1011.8 |
| 20260503194000 | 52 | 101 | 5.0 | 10.0 | 0.00 | 0.00 | 0.00 | 72 | 1011.8 |
| 20260503193912 | 52 | 65 | 5.0 | 9.0 | 0.00 | 0.00 | 0.00 | 72 | 1011.8 |
| 20260503193807 | 52 | 187 | 4.0 | 10.0 | 0.00 | 0.00 | 0.00 | 72 | 1011.9 |
| 20260503193719 | 52 | 262 | 5.0 | 10.0 | 0.00 | 0.00 | 0.00 | 72 | 1011.9 |
| 20260503193610 | 52 | 138 | 5.0 | 10.0 | 0.00 | 0.00 | 0.00 | 72 | 1012.0 |
| 20260503193501 | 52 | 205 | 5.0 | 10.0 | 0.00 | 0.00 | 0.00 | 72 | 1012.0 |
| 20260503193411 | 52 | 209 | 5.0 | 10.0 | 0.00 | 0.00 | 0.00 | 72 | 1012.1 |
| 20260503193325 | 52 | 241 | 5.0 | 10.0 | 0.00 | 0.00 | 0.00 | 71 | 1012.1 |
| 20260503193212 | 52 | 122 | 4.0 | 13.0 | 0.00 | 0.00 | 0.00 | 71 | 1012.2 |
| 20260503193123 | 52 | 309 | 4.0 | 13.0 | 0.00 | 0.00 | 0.00 | 71 | 1012.2 |
| 20260503193045 | 52 | 5 | 5.0 | 13.0 | 0.00 | 0.00 | 0.00 | 71 | 1012.2 |
| 20260503192935 | 52 | 130 | 6.0 | 13.0 | 0.00 | 0.00 | 0.00 | 71 | 1012.3 |
| 20260503192807 | 52 | 255 | 5.0 | 13.0 | 0.00 | 0.00 | 0.00 | 71 | 1012.4 |
| 20260503192718 | 52 | 230 | 5.0 | 13.0 | 0.00 | 0.00 | 0.00 | 71 | 1012.3 |
| 20260503192609 | 52 | 103 | 5.0 | 13.0 | 0.00 | 0.00 | 0.00 | 70 | 1012.4 |
| 20260503192500 | 52 | 157 | 7.0 | 13.0 | 0.00 | 0.00 | 0.00 | 70 | 1012.3 |
| 20260503192410 | 53 | 221 | 8.0 | 13.0 | 0.00 | 0.00 | 0.00 | 70 | 1012.4 |
| 20260503192301 | 53 | 223 | 9.0 | 13.0 | 0.00 | 0.00 | 0.00 | 69 | 1012.5 |
| 20260503192212 | 53 | 238 | 10.0 | 13.0 | 0.00 | 0.00 | 0.00 | 69 | 1012.4 |
| 20260503192102 | 53 | 242 | 9.0 | 13.0 | 0.00 | 0.00 | 0.00 | 69 | 1012.5 |
| 20260503192016 | 53 | 234 | 8.0 | 17.0 | 0.00 | 0.00 | 0.00 | 69 | 1012.5 |
| 20260503191908 | 53 | 246 | 9.0 | 17.0 | 0.00 | 0.00 | 0.00 | 68 | 1012.8 |
| 20260503191820 | 53 | 221 | 8.0 | 17.0 | 0.00 | 0.00 | 0.00 | 68 | 1012.5 |
| 20260503191729 | 53 | 245 | 9.0 | 17.0 | 0.00 | 0.00 | 0.00 | 68 | 1012.5 |
| 20260503191640 | 53 | 210 | 9.0 | 17.0 | 0.00 | 0.00 | 0.00 | 68 | 1012.5 |
| 20260503191543 | 53 | 253 | 8.0 | 17.0 | 0.00 | 0.00 | 0.00 | 68 | 1012.5 |
| 20260503191411 | 54 | 220 | 8.0 | 17.0 | 0.00 | 0.00 | 0.00 | 67 | 1012.6 |
| 20260503191301 | 54 | 246 | 9.0 | 17.0 | 0.00 | 0.00 | 0.00 | 67 | 1012.5 |
| 20260503191212 | 54 | 247 | 10.0 | 18.0 | 0.00 | 0.00 | 0.00 | 66 | 1012.5 |
| 20260503191101 | 54 | 250 | 8.0 | 18.0 | 0.00 | 0.00 | 0.00 | 67 | 1012.5 |
| 20260503191016 | 54 | 182 | 7.0 | 18.0 | 0.00 | 0.00 | 0.00 | 67 | 1012.5 |
| 20260503190926 | 54 | 219 | 7.0 | 18.0 | 0.00 | 0.00 | 0.00 | 67 | 1012.5 |
| 20260503190836 | 54 | 235 | 7.0 | 18.0 | 0.00 | 0.00 | 0.00 | 67 | 1012.5 |
| 20260503190746 | 54 | 227 | 7.0 | 18.0 | 0.00 | 0.00 | 0.00 | 67 | 1012.5 |
| 20260503190657 | 54 | 244 | 8.0 | 18.0 | 0.00 | 0.00 | 0.00 | 66 | 1012.5 |
| 20260503190547 | 54 | 263 | 10.0 | 18.0 | 0.00 | 0.00 | 0.00 | 65 | 1012.4 |
| 20260503190438 | 55 | 239 | 10.0 | 18.0 | 0.00 | 0.00 | 0.00 | 65 | 1012.4 |
| 20260503190309 | 55 | 262 | 9.0 | 16.0 | 0.00 | 0.00 | 0.00 | 65 | 1012.4 |
| 20260503190218 | 55 | 234 | 9.0 | 14.0 | 0.00 | 0.00 | 0.00 | 65 | 1012.5 |
| 20260503190141 | 55 | 214 | 9.0 | 14.0 | 0.00 | 0.00 | 0.00 | 64 | 1012.4 |
| 20260503190021 | 55 | 239 | 10.0 | 14.0 | 0.00 | 0.00 | 0.00 | 64 | 1012.3 |
| 20260503185910 | 55 | 225 | 8.0 | 16.0 | 0.00 | 0.00 | 0.00 | 63 | 1012.4 |
| 20260503185804 | 55 | 262 | 8.0 | 21.0 | 0.00 | 0.00 | 0.00 | 63 | 1012.4 |
| 20260503185715 | 55 | 251 | 8.0 | 21.0 | 0.00 | 0.00 | 0.00 | 63 | 1012.4 |
| 20260503185626 | 55 | 222 | 9.0 | 21.0 | 0.00 | 0.00 | 0.00 | 63 | 1012.4 |
| 20260503185516 | 55 | 237 | 9.0 | 21.0 | 0.00 | 0.00 | 0.00 | 63 | 1012.3 |
| 20260503185406 | 56 | 236 | 9.0 | 21.0 | 0.00 | 0.00 | 0.00 | 63 | 1012.3 |
| 20260503185316 | 56 | 228 | 9.0 | 21.0 | 0.00 | 0.00 | 0.00 | 63 | 1012.3 |
| 20260503185225 | 56 | 225 | 10.0 | 21.0 | 0.00 | 0.00 | 0.00 | 62 | 1012.3 |
| 20260503185137 | 56 | 234 | 11.0 | 21.0 | 0.00 | 0.00 | 0.00 | 62 | 1012.4 |
| 20260503185006 | 56 | 212 | 10.0 | 21.0 | 0.00 | 0.00 | 0.00 | 62 | 1012.3 |
| 20260503184902 | 56 | 236 | 11.0 | 21.0 | 0.00 | 0.00 | 0.00 | 61 | 1012.3 |
| 20260503184812 | 56 | 223 | 12.0 | 21.0 | 0.00 | 0.00 | 0.00 | 61 | 1012.3 |
| 20260503184704 | 56 | 244 | 11.0 | 21.0 | 0.00 | 0.00 | 0.00 | 62 | 1012.4 |
| 20260503184614 | 56 | 240 | 12.0 | 21.0 | 0.00 | 0.00 | 0.00 | 62 | 1012.4 |
| 20260503184536 | 56 | 251 | 13.0 | 21.0 | 0.00 | 0.00 | 0.00 | 61 | 1012.5 |
| 20260503184406 | 56 | 233 | 11.0 | 21.0 | 0.00 | 0.00 | 0.00 | 62 | 1012.4 |
| 20260503184317 | 56 | 234 | 11.0 | 21.0 | 0.00 | 0.00 | 0.00 | 62 | 1012.4 |
| 20260503184209 | 56 | 238 | 12.0 | 21.0 | 0.00 | 0.00 | 0.00 | 62 | 1012.4 |
| 20260503184120 | 57 | 231 | 11.0 | 21.0 | 0.00 | 0.00 | 0.00 | 62 | 1012.3 |
| 20260503184031 | 57 | 238 | 11.0 | 21.0 | 0.00 | 0.00 | 0.00 | 63 | 1012.4 |
| 20260503183925 | 57 | 259 | 11.0 | 21.0 | 0.00 | 0.00 | 0.00 | 63 | 1012.4 |
| 20260503183836 | 57 | 227 | 9.0 | 15.0 | 0.00 | 0.00 | 0.00 | 63 | 1012.4 |
| 20260503183727 | 57 | 260 | 6.0 | 15.0 | 0.00 | 0.00 | 0.00 | 65 | 1012.4 |
| 20260503183637 | 57 | 283 | 7.0 | 15.0 | 0.00 | 0.00 | 0.00 | 64 | 1012.5 |
| 20260503183507 | 57 | 242 | 7.0 | 15.0 | 0.00 | 0.00 | 0.00 | 65 | 1012.4 |
| 20260503183418 | 57 | 244 | 7.0 | 15.0 | 0.00 | 0.00 | 0.00 | 65 | 1012.4 |
| 20260503183311 | 57 | 241 | 9.0 | 15.0 | 0.00 | 0.00 | 0.00 | 65 | 1012.3 |
| 20260503183200 | 56 | 239 | 8.0 | 15.0 | 0.00 | 0.00 | 0.00 | 65 | 1012.4 |
| 20260503183112 | 57 | 274 | 8.0 | 15.0 | 0.00 | 0.00 | 0.00 | 65 | 1012.4 |
| 20260503183034 | 57 | 258 | 8.0 | 15.0 | 0.00 | 0.00 | 0.00 | 65 | 1012.3 |
| 20260503182908 | 57 | 311 | 8.0 | 15.0 | 0.00 | 0.00 | 0.00 | 64 | 1012.3 |
| 20260503182800 | 57 | 244 | 8.0 | 15.0 | 0.00 | 0.00 | 0.00 | 64 | 1012.3 |
| 20260503182711 | 57 | 231 | 8.0 | 17.0 | 0.00 | 0.00 | 0.00 | 64 | 1012.3 |
| 20260503182601 | 57 | 269 | 8.0 | 17.0 | 0.00 | 0.00 | 0.00 | 64 | 1012.3 |
| 20260503182511 | 57 | 259 | 7.0 | 17.0 | 0.00 | 0.00 | 0.00 | 64 | 1012.3 |
| 20260503182401 | 57 | 261 | 8.0 | 18.0 | 0.00 | 0.00 | 0.00 | 64 | 1012.3 |
| 20260503182314 | 57 | 271 | 9.0 | 18.0 | 0.00 | 0.00 | 0.00 | 64 | 1012.4 |
| 20260503182204 | 57 | 254 | 8.0 | 18.0 | 0.00 | 0.00 | 0.00 | 63 | 1012.3 |
| 20260503182119 | 57 | 260 | 8.0 | 18.0 | 0.00 | 0.00 | 0.00 | 63 | 1012.3 |
| 20260503182031 | 57 | 275 | 9.0 | 18.0 | 0.00 | 0.00 | 0.00 | 62 | 1012.3 |
| 20260503181922 | 57 | 288 | 11.0 | 18.0 | 0.00 | 0.00 | 0.00 | 62 | 1012.3 |
| 20260503181832 | 57 | 263 | 9.0 | 18.0 | 0.00 | 0.00 | 0.00 | 62 | 1012.3 |
| 20260503181702 | 57 | 264 | 9.0 | 18.0 | 0.00 | 0.00 | 0.00 | 61 | 1012.3 |
| 20260503181613 | 57 | 244 | 8.0 | 18.0 | 0.00 | 0.00 | 0.00 | 62 | 1012.3 |
| 20260503181536 | 57 | 212 | 8.0 | 16.0 | 0.00 | 0.00 | 0.00 | 63 | 1012.3 |
| 20260503181407 | 57 | 258 | 9.0 | 16.0 | 0.00 | 0.00 | 0.00 | 62 | 1012.4 |
| 20260503181317 | 57 | 254 | 7.0 | 15.0 | 0.00 | 0.00 | 0.00 | 64 | 1012.4 |
| 20260503181207 | 57 | 219 | 6.0 | 17.0 | 0.00 | 0.00 | 0.00 | 63 | 1012.4 |
| 20260503181103 | 57 | 250 | 8.0 | 17.0 | 0.00 | 0.00 | 0.00 | 62 | 1012.4 |
| 20260503181013 | 58 | 277 | 7.0 | 18.0 | 0.00 | 0.00 | 0.00 | 62 | 1012.4 |
| 20260503180904 | 58 | 265 | 6.0 | 21.0 | 0.00 | 0.00 | 0.00 | 63 | 1012.4 |
| 20260503180816 | 58 | 249 | 7.0 | 21.0 | 0.00 | 0.00 | 0.00 | 62 | 1012.4 |
| 20260503180706 | 58 | 251 | 8.0 | 21.0 | 0.00 | 0.00 | 0.00 | 61 | 1012.4 |
| 20260503180618 | 58 | 260 | 7.0 | 21.0 | 0.00 | 0.00 | 0.00 | 61 | 1012.5 |
| 20260503180509 | 58 | 267 | 9.0 | 21.0 | 0.00 | 0.00 | 0.00 | 61 | 1012.4 |
| 20260503180400 | 58 | 237 | 11.0 | 21.0 | 0.00 | 0.00 | 0.00 | 59 | 1012.4 |
| 20260503180317 | 59 | 242 | 11.0 | 21.0 | 0.00 | 0.00 | 0.00 | 58 | 1012.4 |
| 20260503180225 | 59 | 258 | 12.0 | 21.0 | 0.00 | 0.00 | 0.00 | 57 | 1012.4 |
| 20260503180136 | 59 | 266 | 12.0 | 21.0 | 0.00 | 0.00 | 0.00 | 58 | 1012.4 |
| 20260503180038 | 59 | 266 | 11.0 | 20.0 | 0.00 | 0.00 | 0.00 | 58 | 1012.4 |
| 20260503175907 | 60 | 232 | 9.0 | 16.0 | 0.00 | 0.00 | 0.00 | 59 | 1012.5 |
| 20260503175818 | 60 | 227 | 8.0 | 16.0 | 0.00 | 0.00 | 0.00 | 58 | 1012.4 |
| 20260503175710 | 59 | 245 | 8.0 | 19.0 | 0.00 | 0.00 | 0.00 | 59 | 1012.3 |
| 20260503175600 | 59 | 259 | 9.0 | 19.0 | 0.00 | 0.00 | 0.00 | 58 | 1012.5 |
| 20260503175513 | 59 | 288 | 9.0 | 19.0 | 0.00 | 0.00 | 0.00 | 57 | 1012.4 |
| 20260503175423 | 59 | 239 | 8.0 | 19.0 | 0.00 | 0.00 | 0.00 | 58 | 1012.5 |
| 20260503175316 | 59 | 234 | 9.0 | 19.0 | 0.00 | 0.00 | 0.00 | 57 | 1012.4 |
| 20260503175229 | 59 | 250 | 8.0 | 19.0 | 0.00 | 0.00 | 0.00 | 57 | 1012.5 |
| 20260503175139 | 60 | 234 | 10.0 | 19.0 | 0.00 | 0.00 | 0.00 | 56 | 1012.4 |
| 20260503175048 | 60 | 300 | 11.0 | 19.0 | 0.00 | 0.00 | 0.00 | 55 | 1012.4 |
| 20260503174959 | 60 | 251 | 11.0 | 19.0 | 0.00 | 0.00 | 0.00 | 55 | 1012.4 |
| 20260503174910 | 60 | 271 | 12.0 | 19.0 | 0.00 | 0.00 | 0.00 | 55 | 1012.5 |
| 20260503174800 | 60 | 261 | 9.0 | 19.0 | 0.00 | 0.00 | 0.00 | 55 | 1012.6 |
| 20260503174649 | 60 | 273 | 8.0 | 18.0 | 0.00 | 0.00 | 0.00 | 56 | 1012.6 |
| 20260503174610 | 60 | 265 | 10.0 | 18.0 | 0.00 | 0.00 | 0.00 | 54 | 1012.6 |
| 20260503174440 | 60 | 261 | 10.0 | 18.0 | 0.00 | 0.00 | 0.00 | 54 | 1012.6 |
| 20260503174310 | 60 | 248 | 9.0 | 18.0 | 0.00 | 0.00 | 0.00 | 54 | 1012.5 |
| 20260503174221 | 60 | 252 | 9.0 | 18.0 | 0.00 | 0.00 | 0.00 | 54 | 1012.6 |
| 20260503174114 | 60 | 291 | 10.0 | 18.0 | 0.00 | 0.00 | 0.00 | 54 | 1012.6 |
| 20260503174005 | 60 | 256 | 11.0 | 18.0 | 0.00 | 0.00 | 0.00 | 54 | 1012.6 |
| 20260503173915 | 60 | 252 | 10.0 | 17.0 | 0.00 | 0.00 | 0.00 | 52 | 1012.6 |
| 20260503173826 | 60 | 263 | 12.0 | 17.0 | 0.00 | 0.00 | 0.00 | 53 | 1012.7 |
| 20260503173736 | 60 | 251 | 11.0 | 20.0 | 0.00 | 0.00 | 0.00 | 52 | 1012.5 |
| 20260503173626 | 60 | 238 | 8.0 | 20.0 | 0.00 | 0.00 | 0.00 | 53 | 1012.7 |
| 20260503173536 | 60 | 253 | 8.0 | 20.0 | 0.00 | 0.00 | 0.00 | 54 | 1012.6 |
| 20260503173405 | 60 | 228 | 9.0 | 20.0 | 0.00 | 0.00 | 0.00 | 52 | 1012.7 |
| 20260503173318 | 60 | 259 | 9.0 | 20.0 | 0.00 | 0.00 | 0.00 | 53 | 1012.7 |
| 20260503173206 | 60 | 254 | 8.0 | 20.0 | 0.00 | 0.00 | 0.00 | 54 | 1012.7 |
| 20260503173122 | 60 | 264 | 8.0 | 20.0 | 0.00 | 0.00 | 0.00 | 54 | 1012.7 |
| 20260503173023 | 60 | 229 | 8.0 | 20.0 | 0.00 | 0.00 | 0.00 | 54 | 1012.6 |
| 20260503172915 | 60 | 226 | 7.0 | 20.0 | 0.00 | 0.00 | 0.00 | 56 | 1012.8 |
| 20260503172824 | 60 | 273 | 9.0 | 20.0 | 0.00 | 0.00 | 0.00 | 54 | 1012.7 |
| 20260503172735 | 60 | 224 | 11.0 | 20.0 | 0.00 | 0.00 | 0.00 | 52 | 1012.8 |
| 20260503172604 | 60 | 242 | 11.0 | 18.0 | 0.00 | 0.00 | 0.00 | 53 | 1012.6 |
| 20260503172514 | 60 | 229 | 10.0 | 18.0 | 0.00 | 0.00 | 0.00 | 52 | 1012.6 |
| 20260503172403 | 60 | 268 | 8.0 | 18.0 | 0.00 | 0.00 | 0.00 | 52 | 1012.8 |
| 20260503172314 | 60 | 231 | 8.0 | 18.0 | 0.00 | 0.00 | 0.00 | 54 | 1012.7 |
| 20260503172225 | 60 | 226 | 9.0 | 18.0 | 0.00 | 0.00 | 0.00 | 54 | 1012.7 |
| 20260503172136 | 60 | 263 | 10.0 | 18.0 | 0.00 | 0.00 | 0.00 | 52 | 1012.8 |
| 20260503172010 | 60 | 229 | 9.0 | 14.0 | 0.00 | 0.00 | 0.00 | 52 | 1012.8 |
| 20260503171922 | 61 | 236 | 8.0 | 20.0 | 0.00 | 0.00 | 0.00 | 55 | 1012.8 |
| 20260503171812 | 60 | 232 | 7.0 | 20.0 | 0.00 | 0.00 | 0.00 | 53 | 1012.8 |
| 20260503171703 | 60 | 218 | 7.0 | 20.0 | 0.00 | 0.00 | 0.00 | 53 | 1012.8 |
| 20260503171615 | 60 | 239 | 7.0 | 20.0 | 0.00 | 0.00 | 0.00 | 53 | 1012.8 |
| 20260503171537 | 60 | 201 | 7.0 | 20.0 | 0.00 | 0.00 | 0.00 | 53 | 1012.8 |
| 20260503171408 | 60 | 223 | 7.0 | 20.0 | 0.00 | 0.00 | 0.00 | 53 | 1012.8 |
| 20260503171318 | 60 | 278 | 9.0 | 20.0 | 0.00 | 0.00 | 0.00 | 53 | 1012.9 |
| 20260503171209 | 60 | 225 | 11.0 | 20.0 | 0.00 | 0.00 | 0.00 | 53 | 1012.9 |
| 20260503171103 | 60 | 252 | 11.0 | 20.0 | 0.00 | 0.00 | 0.00 | 51 | 1012.8 |
| 20260503171014 | 60 | 267 | 10.0 | 19.0 | 0.00 | 0.00 | 0.00 | 51 | 1012.8 |
| 20260503170904 | 61 | 223 | 8.0 | 17.0 | 0.00 | 0.00 | 0.00 | 53 | 1012.9 |
| 20260503170816 | 61 | 266 | 8.0 | 17.0 | 0.00 | 0.00 | 0.00 | 53 | 1013.0 |
| 20260503170726 | 61 | 250 | 8.0 | 16.0 | 0.00 | 0.00 | 0.00 | 53 | 1013.0 |
| 20260503170616 | 61 | 261 | 8.0 | 16.0 | 0.00 | 0.00 | 0.00 | 54 | 1012.9 |
| 20260503170508 | 61 | 251 | 8.0 | 16.0 | 0.00 | 0.00 | 0.00 | 54 | 1013.0 |
| 20260503170418 | 61 | 222 | 8.0 | 16.0 | 0.00 | 0.00 | 0.00 | 53 | 1013.0 |
| 20260503170311 | 61 | 256 | 8.0 | 15.0 | 0.00 | 0.00 | 0.00 | 53 | 1012.9 |
| 20260503170205 | 60 | 237 | 8.0 | 15.0 | 0.00 | 0.00 | 0.00 | 53 | 1012.9 |
| 20260503170118 | 61 | 231 | 8.0 | 15.0 | 0.00 | 0.00 | 0.00 | 52 | 1012.9 |
| 20260503160212 | 57 | 242 | 7.0 | 12.0 | 0.00 | 0.00 | 0.00 | 56 | 1013.8 |
| 20260503151002 | 55 | 232 | 5.0 | 14.0 | 0.00 | 0.00 | 0.00 | 58 | 1014.2 |
| 20260503150912 | 55 | 259 | 6.0 | 14.0 | 0.00 | 0.00 | 0.00 | 58 | 1014.2 |
| 20260503150801 | 55 | 259 | 7.0 | 14.0 | 0.00 | 0.00 | 0.00 | 58 | 1014.2 |
| 20260503150712 | 55 | 214 | 7.0 | 14.0 | 0.00 | 0.00 | 0.00 | 58 | 1014.3 |
| 20260503150603 | 55 | 238 | 6.0 | 14.0 | 0.00 | 0.00 | 0.00 | 58 | 1014.2 |
| 20260503150518 | 55 | 254 | 6.0 | 11.0 | 0.00 | 0.00 | 0.00 | 58 | 1014.3 |
| 20260503150409 | 55 | 254 | 7.0 | 11.0 | 0.00 | 0.00 | 0.00 | 58 | 1014.3 |
| 20260503150303 | 54 | 230 | 6.0 | 11.0 | 0.00 | 0.00 | 0.00 | 60 | 1014.2 |
| 20260503150213 | 54 | 244 | 6.0 | 12.0 | 0.00 | 0.00 | 0.00 | 58 | 1014.2 |
| 20260503150103 | 54 | 213 | 6.0 | 12.0 | 0.00 | 0.00 | 0.00 | 59 | 1014.3 |
| 20260503140209 | 52 | 243 | 6.0 | 10.0 | 0.00 | 0.00 | 0.00 | 60 | 1014.3 |
| 20260503140120 | 52 | 241 | 5.0 | 9.0 | 0.00 | 0.00 | 0.00 | 61 | 1014.3 |
| 20260503131401 | 49 | 227 | 5.0 | 12.0 | 0.00 | 0.00 | 0.00 | 62 | 1014.7 |
| 20260503131312 | 49 | 232 | 5.0 | 12.0 | 0.00 | 0.00 | 0.00 | 62 | 1014.7 |
| 20260503131222 | 49 | 234 | 5.0 | 12.0 | 0.00 | 0.00 | 0.00 | 62 | 1014.7 |
| 20260503131111 | 49 | 239 | 5.0 | 12.0 | 0.00 | 0.00 | 0.00 | 61 | 1014.7 |
| 20260503131005 | 49 | 227 | 7.0 | 12.0 | 0.00 | 0.00 | 0.00 | 61 | 1014.7 |
| 20260503130916 | 49 | 235 | 7.0 | 12.0 | 0.00 | 0.00 | 0.00 | 61 | 1014.8 |
| 20260503130826 | 49 | 194 | 7.0 | 12.0 | 0.00 | 0.00 | 0.00 | 62 | 1014.8 |
| 20260503130718 | 49 | 245 | 6.0 | 12.0 | 0.00 | 0.00 | 0.00 | 62 | 1014.6 |
| 20260503130607 | 49 | 233 | 5.0 | 11.0 | 0.00 | 0.00 | 0.00 | 63 | 1014.8 |
| 20260503130517 | 49 | 252 | 5.0 | 11.0 | 0.00 | 0.00 | 0.00 | 63 | 1014.7 |
| 20260503130428 | 49 | 252 | 5.0 | 11.0 | 0.00 | 0.00 | 0.00 | 62 | 1014.7 |
| 20260503130320 | 49 | 221 | 5.0 | 11.0 | 0.00 | 0.00 | 0.00 | 63 | 1014.7 |
| 20260503130209 | 49 | 240 | 5.0 | 11.0 | 0.00 | 0.00 | 0.00 | 61 | 1014.6 |
| 20260503130111 | 49 | 209 | 6.0 | 11.0 | 0.00 | 0.00 | 0.00 | 62 | 1014.6 |
| 20260503120112 | 44 | 216 | 3.0 | 5.0 | 0.00 | 0.00 | 0.00 | 71 | 1014.6 |
| 20260503110810 | 41 | 214 | 1.0 | 3.0 | 0.00 | 0.00 | 0.00 | 74 | 1014.5 |
| 20260503110702 | 41 | 214 | 1.0 | 4.0 | 0.00 | 0.00 | 0.00 | 74 | 1014.4 |
| 20260503110612 | 41 | 214 | 1.0 | 4.0 | 0.00 | 0.00 | 0.00 | 74 | 1014.4 |
| 20260503110504 | 41 | 205 | 1.0 | 4.0 | 0.00 | 0.00 | 0.00 | 74 | 1014.5 |
| 20260503110415 | 41 | 240 | 1.0 | 4.0 | 0.00 | 0.00 | 0.00 | 74 | 1014.4 |
| 20260503110310 | 41 | 237 | 1.0 | 4.0 | 0.00 | 0.00 | 0.00 | 74 | 1014.4 |
| 20260503110221 | 41 | 237 | 1.0 | 4.0 | 0.00 | 0.00 | 0.00 | 74 | 1014.5 |
| 20260503110131 | 41 | 215 | 2.0 | 4.0 | 0.00 | 0.00 | 0.00 | 74 | 1014.4 |
| 20260503100222 | 41 | 240 | 2.0 | 4.0 | 0.00 | 0.00 | 0.00 | 73 | 1014.3 |
| 20260503100112 | 41 | 234 | 2.0 | 4.0 | 0.00 | 0.00 | 0.00 | 73 | 1014.4 |
| 20260503090503 | 41 | 247 | 1.0 | 4.0 | 0.00 | 0.00 | 0.00 | 72 | 1014.8 |
| 20260503090414 | 41 | 252 | 1.0 | 4.0 | 0.00 | 0.00 | 0.00 | 72 | 1014.8 |
| 20260503090307 | 41 | 208 | 1.0 | 4.0 | 0.00 | 0.00 | 0.00 | 72 | 1014.8 |
| 20260503090217 | 41 | 238 | 2.0 | 4.0 | 0.00 | 0.00 | 0.00 | 72 | 1014.8 |
| 20260503090129 | 41 | 223 | 2.0 | 4.0 | 0.00 | 0.00 | 0.00 | 72 | 1014.8 |
| 20260503081610 | 42 | 237 | 2.0 | 4.0 | 0.00 | 0.00 | 0.00 | 69 | 1014.9 |
| 20260503081532 | 42 | 229 | 2.0 | 4.0 | 0.00 | 0.00 | 0.00 | 69 | 1015.0 |
| 20260503081403 | 42 | 211 | 2.0 | 4.0 | 0.00 | 0.00 | 0.00 | 69 | 1015.0 |
| 20260503081314 | 42 | 229 | 2.0 | 4.0 | 0.00 | 0.00 | 0.00 | 69 | 1014.9 |
| 20260503081228 | 42 | 198 | 2.0 | 4.0 | 0.00 | 0.00 | 0.00 | 69 | 1014.9 |
| 20260503081140 | 42 | 238 | 1.0 | 4.0 | 0.00 | 0.00 | 0.00 | 69 | 1014.9 |
| 20260503081009 | 42 | 253 | 1.0 | 4.0 | 0.00 | 0.00 | 0.00 | 69 | 1015.0 |
| 20260503080900 | 42 | 246 | 2.0 | 4.0 | 0.00 | 0.00 | 0.00 | 69 | 1015.0 |
| 20260503080810 | 42 | 227 | 3.0 | 4.0 | 0.00 | 0.00 | 0.00 | 69 | 1014.9 |
| 20260503080701 | 42 | 232 | 2.0 | 4.0 | 0.00 | 0.00 | 0.00 | 69 | 1014.9 |
| 20260503080612 | 42 | 252 | 1.0 | 4.0 | 0.00 | 0.00 | 0.00 | 69 | 1014.9 |
| 20260503080503 | 42 | 224 | 2.0 | 4.0 | 0.00 | 0.00 | 0.00 | 69 | 1015.0 |
| 20260503080414 | 42 | 196 | 2.0 | 4.0 | 0.00 | 0.00 | 0.00 | 69 | 1015.0 |
| 20260503080311 | 43 | 217 | 2.0 | 4.0 | 0.00 | 0.00 | 0.00 | 69 | 1014.9 |
| 20260503080200 | 43 | 214 | 2.0 | 4.0 | 0.00 | 0.00 | 0.00 | 69 | 1014.9 |
| 20260503080120 | 43 | 232 | 3.0 | 4.0 | 0.00 | 0.00 | 0.00 | 69 | 1015.0 |
| 20260503072902 | 43 | 220 | 3.0 | 7.0 | 0.00 | 0.00 | 0.00 | 67 | 1015.1 |
| 20260503072812 | 43 | 252 | 3.0 | 6.0 | 0.00 | 0.00 | 0.00 | 67 | 1015.0 |
| 20260503072702 | 43 | 223 | 3.0 | 6.0 | 0.00 | 0.00 | 0.00 | 67 | 1015.0 |
| 20260503072612 | 43 | 242 | 3.0 | 6.0 | 0.00 | 0.00 | 0.00 | 67 | 1015.1 |
| 20260503072504 | 43 | 252 | 3.0 | 6.0 | 0.00 | 0.00 | 0.00 | 67 | 1015.1 |
| 20260503072418 | 43 | 246 | 3.0 | 6.0 | 0.00 | 0.00 | 0.00 | 67 | 1015.1 |
| 20260503072308 | 43 | 252 | 3.0 | 6.0 | 0.00 | 0.00 | 0.00 | 68 | 1015.1 |
| 20260503072200 | 43 | 266 | 2.0 | 6.0 | 0.00 | 0.00 | 0.00 | 68 | 1015.1 |
| 20260503072111 | 43 | 241 | 2.0 | 6.0 | 0.00 | 0.00 | 0.00 | 68 | 1015.1 |
| 20260503072022 | 43 | 242 | 3.0 | 6.0 | 0.00 | 0.00 | 0.00 | 68 | 1015.1 |
| 20260503071933 | 43 | 253 | 3.0 | 6.0 | 0.00 | 0.00 | 0.00 | 67 | 1015.1 |
| 20260503071804 | 43 | 215 | 3.0 | 6.0 | 0.00 | 0.00 | 0.00 | 67 | 1015.2 |
| 20260503071713 | 43 | 258 | 3.0 | 6.0 | 0.00 | 0.00 | 0.00 | 67 | 1015.2 |
| 20260503071605 | 43 | 215 | 2.0 | 6.0 | 0.00 | 0.00 | 0.00 | 67 | 1015.1 |
| 20260503071530 | 43 | 256 | 3.0 | 7.0 | 0.00 | 0.00 | 0.00 | 67 | 1015.2 |
| 20260503071420 | 43 | 214 | 3.0 | 5.0 | 0.00 | 0.00 | 0.00 | 67 | 1015.2 |
| 20260503071310 | 43 | 236 | 2.0 | 5.0 | 0.00 | 0.00 | 0.00 | 67 | 1015.1 |
| 20260503071201 | 43 | 272 | 2.0 | 5.0 | 0.00 | 0.00 | 0.00 | 67 | 1015.2 |
| 20260503071111 | 43 | 161 | 2.0 | 5.0 | 0.00 | 0.00 | 0.00 | 67 | 1015.1 |
| 20260503071022 | 43 | 236 | 2.0 | 5.0 | 0.00 | 0.00 | 0.00 | 67 | 1015.2 |
| 20260503070932 | 43 | 227 | 3.0 | 5.0 | 0.00 | 0.00 | 0.00 | 67 | 1015.2 |
| 20260503070801 | 43 | 255 | 3.0 | 5.0 | 0.00 | 0.00 | 0.00 | 67 | 1015.1 |
| 20260503070712 | 43 | 246 | 3.0 | 5.0 | 0.00 | 0.00 | 0.00 | 67 | 1015.2 |
| 20260503070623 | 43 | 177 | 3.0 | 5.0 | 0.00 | 0.00 | 0.00 | 67 | 1015.2 |
| 20260503070518 | 43 | 214 | 4.0 | 5.0 | 0.00 | 0.00 | 0.00 | 67 | 1015.2 |
| 20260503070429 | 43 | 235 | 3.0 | 5.0 | 0.00 | 0.00 | 0.00 | 67 | 1015.2 |
| 20260503070321 | 43 | 259 | 2.0 | 5.0 | 0.00 | 0.00 | 0.00 | 67 | 1015.2 |
| 20260503070229 | 43 | 232 | 2.0 | 5.0 | 0.00 | 0.00 | 0.00 | 67 | 1015.2 |
| 20260503070140 | 43 | 240 | 2.0 | 5.0 | 0.00 | 0.00 | 0.00 | 67 | 1015.2 |
| 20260503060310 | 42 | 253 | 3.0 | 5.0 | 0.00 | 0.00 | 0.00 | 70 | 1015.8 |
| 20260503060219 | 42 | 247 | 3.0 | 5.0 | 0.00 | 0.00 | 0.00 | 70 | 1015.8 |
| 20260503060110 | 42 | 220 | 3.0 | 5.0 | 0.00 | 0.00 | 0.00 | 70 | 1015.7 |
| 20260503055115 | 41 | 189 | 1.0 | 3.0 | 0.00 | 0.00 | 0.00 | 72 | 1015.9 |
| 20260503055025 | 41 | 189 | 1.0 | 3.0 | 0.00 | 0.00 | 0.00 | 72 | 1016.0 |
| 20260503054915 | 41 | 192 | 1.0 | 3.0 | 0.00 | 0.00 | 0.00 | 72 | 1016.0 |
| 20260503054809 | 41 | 260 | 1.0 | 3.0 | 0.00 | 0.00 | 0.00 | 73 | 1015.9 |
| 20260503054720 | 41 | 236 | 1.0 | 3.0 | 0.00 | 0.00 | 0.00 | 73 | 1015.9 |
| 20260503054632 | 41 | 221 | 1.0 | 3.0 | 0.00 | 0.00 | 0.00 | 73 | 1016.0 |
| 20260503054532 | 41 | 221 | 1.0 | 3.0 | 0.00 | 0.00 | 0.00 | 73 | 1016.0 |
| 20260503054423 | 41 | 183 | 1.0 | 2.0 | 0.00 | 0.00 | 0.00 | 73 | 1016.1 |
| 20260503054312 | 41 | 183 | 1.0 | 2.0 | 0.00 | 0.00 | 0.00 | 73 | 1016.0 |
| 20260503054222 | 41 | 256 | 1.0 | 2.0 | 0.00 | 0.00 | 0.00 | 73 | 1016.0 |
| 20260503054133 | 41 | 255 | 1.0 | 2.0 | 0.00 | 0.00 | 0.00 | 73 | 1016.1 |
| 20260503054002 | 41 | 255 | 1.0 | 2.0 | 0.00 | 0.00 | 0.00 | 73 | 1015.9 |
| 20260503053914 | 41 | 255 | 1.0 | 2.0 | 0.00 | 0.00 | 0.00 | 73 | 1016.0 |
| 20260503053824 | 41 | 255 | 1.0 | 2.0 | 0.00 | 0.00 | 0.00 | 73 | 1016.0 |
| 20260503053739 | 41 | 244 | 0.0 | 2.0 | 0.00 | 0.00 | 0.00 | 73 | 1016.0 |
| 20260503053609 | 41 | 169 | 0.0 | 2.0 | 0.00 | 0.00 | 0.00 | 73 | 1016.0 |
| 20260503053501 | 41 | 169 | 0.0 | 2.0 | 0.00 | 0.00 | 0.00 | 73 | 1016.1 |
| 20260503053412 | 41 | 221 | 0.0 | 2.0 | 0.00 | 0.00 | 0.00 | 73 | 1016.0 |
| 20260503053324 | 41 | 221 | 1.0 | 2.0 | 0.00 | 0.00 | 0.00 | 73 | 1016.0 |
| 20260503053231 | 41 | 225 | 0.0 | 2.0 | 0.00 | 0.00 | 0.00 | 73 | 1016.1 |
| 20260503053143 | 41 | 164 | 0.0 | 2.0 | 0.00 | 0.00 | 0.00 | 74 | 1016.1 |
| 20260503053045 | 41 | 164 | 0.0 | 2.0 | 0.00 | 0.00 | 0.00 | 74 | 1016.1 |
| 20260503052913 | 41 | 183 | 0.0 | 2.0 | 0.00 | 0.00 | 0.00 | 74 | 1016.1 |
| 20260503052824 | 41 | 239 | 0.0 | 2.0 | 0.00 | 0.00 | 0.00 | 74 | 1016.2 |
| 20260503052735 | 41 | 205 | 0.0 | 2.0 | 0.00 | 0.00 | 0.00 | 74 | 1016.2 |
| 20260503052650 | 41 | 242 | 0.0 | 2.0 | 0.00 | 0.00 | 0.00 | 74 | 1016.2 |
| 20260503052540 | 41 | 167 | 0.0 | 3.0 | 0.00 | 0.00 | 0.00 | 74 | 1016.2 |
| 20260503052410 | 41 | 209 | 0.0 | 2.0 | 0.00 | 0.00 | 0.00 | 74 | 1016.1 |
| 20260503052300 | 41 | 317 | 1.0 | 2.0 | 0.00 | 0.00 | 0.00 | 74 | 1016.1 |
| 20260503052211 | 41 | 18 | 0.0 | 2.0 | 0.00 | 0.00 | 0.00 | 74 | 1016.1 |
| 20260503052121 | 41 | 230 | 0.0 | 2.0 | 0.00 | 0.00 | 0.00 | 74 | 1016.2 |
| 20260503052032 | 41 | 160 | 0.0 | 2.0 | 0.00 | 0.00 | 0.00 | 74 | 1016.2 |
| 20260503051901 | 41 | 178 | 0.0 | 2.0 | 0.00 | 0.00 | 0.00 | 74 | 1016.2 |
| 20260503051812 | 41 | 138 | 0.0 | 2.0 | 0.00 | 0.00 | 0.00 | 74 | 1016.2 |
| 20260503051706 | 41 | 138 | 0.0 | 2.0 | 0.00 | 0.00 | 0.00 | 75 | 1016.2 |
| 20260503051616 | 41 | 136 | 0.0 | 2.0 | 0.00 | 0.00 | 0.00 | 74 | 1016.2 |
| 20260503051538 | 41 | 136 | 0.0 | 2.0 | 0.00 | 0.00 | 0.00 | 74 | 1016.2 |
| 20260503051428 | 41 | 229 | 0.0 | 2.0 | 0.00 | 0.00 | 0.00 | 74 | 1016.3 |
| 20260503051316 | 41 | 82 | 0.0 | 1.0 | 0.00 | 0.00 | 0.00 | 75 | 1016.2 |
| 20260503051206 | 41 | 349 | 0.0 | 1.0 | 0.00 | 0.00 | 0.00 | 75 | 1016.2 |
| 20260503051116 | 41 | 11 | 0.0 | 1.0 | 0.00 | 0.00 | 0.00 | 75 | 1016.3 |
| 20260503051008 | 41 | 127 | 0.0 | 1.0 | 0.00 | 0.00 | 0.00 | 74 | 1016.3 |
| 20260503050920 | 41 | 126 | 0.0 | 1.0 | 0.00 | 0.00 | 0.00 | 74 | 1016.4 |
| 20260503050831 | 41 | 227 | 0.0 | 1.0 | 0.00 | 0.00 | 0.00 | 74 | 1016.3 |
| 20260503050704 | 41 | 227 | 0.0 | 2.0 | 0.00 | 0.00 | 0.00 | 74 | 1016.4 |
| 20260503050614 | 41 | 205 | 0.0 | 2.0 | 0.00 | 0.00 | 0.00 | 74 | 1016.4 |
| 20260503050505 | 41 | 205 | 0.0 | 2.0 | 0.00 | 0.00 | 0.00 | 75 | 1016.4 |
| 20260503050416 | 41 | 205 | 0.0 | 2.0 | 0.00 | 0.00 | 0.00 | 75 | 1016.4 |
| 20260503050308 | 40 | 205 | 0.0 | 2.0 | 0.00 | 0.00 | 0.00 | 75 | 1016.3 |
| 20260503050216 | 40 | 205 | 0.0 | 2.0 | 0.00 | 0.00 | 0.00 | 75 | 1016.4 |
| 20260503050127 | 40 | 156 | 0.0 | 2.0 | 0.00 | 0.00 | 0.00 | 76 | 1016.5 |
| 20260503050049 | 40 | 138 | 0.0 | 2.0 | 0.00 | 0.00 | 0.00 | 76 | 1016.5 |
| 20260503045938 | 40 | 138 | 0.0 | 2.0 | 0.00 | 0.00 | 0.00 | 76 | 1016.4 |
| 20260503045807 | 40 | 138 | 0.0 | 0.0 | 0.00 | 0.00 | 0.00 | 76 | 1016.5 |
| 20260503045701 | 40 | 138 | 0.0 | 0.0 | 0.00 | 0.00 | 0.00 | 76 | 1016.5 |
| 20260503045612 | 40 | 138 | 0.0 | 0.0 | 0.00 | 0.00 | 0.00 | 77 | 1016.4 |